GFSFLT1_sfc_thetae_000.txt.gz
Theta_e
312 314 317 316 320 320 320 322 322 317 309 311 309 310 311 309 307 309 310 308 308 307 307 307 307 305 304 303 302 303 303 302
311 311 311 311 311 311 312 313 314 309 308 307 309 306 306 306 306 308 308 309 308 306 305 306 305 303 302 301 301 301 301 301
308 308 309 308 308 309 310 308 308 308 309 309 308 305 305 306 309 309 307 307 306 305 303 302 302 301 300 299 300 299 299 300
307 307 305 304 304 305 305 305 305 307 308 305 305 306 306 305 304 303 305 303 303 302 301 301 300 300 298 298 299 298 297 298
306 305 304 304 303 303 304 304 304 305 305 303 304 303 301 302 302 300 299 300 301 301 300 300 299 299 297 298 300 297 297 295
304 304 305 304 303 303 303 304 304 304 304 303 302 300 299 299 299 297 297 298 299 299 299 298 298 298 297 296 297 296 296 295
304 305 305 304 303 302 301 302 303 303 302 302 302 299 297 297 295 294 295 296 297 297 298 296 295 295 294 294 293 293 292 292
303 304 303 303 303 303 303 303 304 303 302 300 299 297 296 294 294 295 295 296 296 296 295 295 294 294 293 293 292 291 292 291
302 302 302 302 303 303 302 300 298 299 298 297 297 298 299 298 298 294 296 295 295 295 294 294 293 293 292 291 290 290 290 289
301 301 302 302 302 301 302 300 298 297 298 298 299 300 300 299 299 296 297 294 296 293 293 292 292 291 291 291 289 288 288 287
300 300 300 300 301 302 303 301 298 297 297 299 301 300 299 297 295 294 293 293 294 293 291 290 291 290 290 290 288 288 287 287
299 299 299 298 298 298 298 297 299 297 297 297 296 296 296 295 293 293 293 293 294 294 292 290 289 288 287 286 287 287 287 285
298 297 297 296 295 295 294 295 296 296 296 297 296 296 295 293 292 291 292 291 291 291 291 290 287 286 286 285 285 285 283 282
296 296 295 294 293 292 291 291 290 291 292 294 295 296 296 292 290 291 291 289 290 290 289 287 286 286 285 284 283 282 281 281
295 294 293 291 290 289 289 290 290 290 289 290 289 291 293 290 289 290 291 292 292 288 287 287 287 285 285 283 282 280 280 280
295 293 291 288 288 288 289 289 289 290 289 288 290 292 291 291 292 291 292 291 292 287 286 285 284 284 283 280 280 280 279 279
293 292 289 289 289 287 288 288 288 289 288 290 292 292 292 291 290 291 290 290 286 285 284 284 283 284 284 284 281 278 279 278
292 289 288 288 287 287 286 287 288 288 288 290 291 291 291 290 291 290 290 286 285 283 283 282 281 281 284 284 284 279 278 277
290 287 287 287 286 286 287 287 287 287 289 289 290 289 289 289 290 289 288 286 284 282 281 281 281 282 285 285 283 279 279 278

GFSFLT1_sfc_thetae_003.txt.gz
Theta_e
309 312 314 314 314 318 320 319 320 315 312 310 309 310 309 309 307 306 306 306 307 305 304 304 304 302 300 300 299 300 300 300
307 308 309 309 310 311 313 313 312 312 310 309 308 306 306 306 306 306 305 304 304 302 301 301 301 299 298 299 299 298 297 298
306 306 306 306 307 308 309 309 307 308 308 307 309 307 306 308 307 304 303 302 301 301 300 299 299 298 297 297 297 296 297 297
305 304 301 301 302 303 304 304 305 306 309 308 304 303 303 301 300 300 299 301 300 299 299 298 298 297 296 296 296 295 294 296
303 302 300 300 300 301 301 302 302 303 303 302 302 301 300 299 298 296 296 299 298 298 298 297 296 295 294 296 296 294 294 292
302 302 302 301 301 300 301 302 303 302 302 302 301 299 296 297 295 294 295 296 297 297 296 296 295 294 293 292 292 291 291 290
302 303 303 302 300 299 299 300 301 302 301 300 299 296 295 293 293 293 293 295 296 296 297 295 294 293 292 291 290 290 289 289
304 303 300 300 299 299 301 300 299 298 297 296 296 295 293 293 294 293 295 296 296 295 294 292 292 292 291 290 289 288 288 287
298 298 298 298 299 297 296 296 296 296 296 296 296 296 296 296 298 297 295 293 293 293 292 292 292 291 290 290 288 287 287 285
298 298 298 298 298 298 296 295 295 295 296 296 297 298 298 296 296 294 292 292 294 293 292 293 293 292 290 289 288 286 286 285
297 297 296 296 296 296 297 296 295 295 295 295 297 295 295 295 294 293 292 292 295 294 294 293 291 291 290 288 287 286 286 285
296 296 296 295 294 293 293 293 292 291 292 293 293 293 294 293 292 292 292 292 292 292 292 291 290 289 287 286 285 286 286 284
295 295 295 294 291 289 289 289 288 289 290 291 291 291 291 291 291 290 291 291 289 289 289 291 288 286 285 285 285 284 282 281
294 293 293 290 289 290 288 288 287 287 287 287 287 288 289 289 288 288 289 290 291 291 290 286 285 286 286 285 283 281 280 280
293 292 291 290 289 288 287 287 287 287 286 287 288 289 289 287 287 288 289 290 289 288 288 286 286 285 284 283 281 280 280 280
293 290 289 288 287 287 286 287 287 288 287 287 288 289 289 289 288 288 288 289 289 288 286 284 284 284 283 280 280 280 279 279
293 291 288 287 286 286 287 286 287 288 286 288 289 289 289 289 289 288 291 289 288 283 282 282 282 283 285 285 283 279 279 278
291 288 286 286 286 286 285 286 287 287 286 288 289 289 288 288 288 289 287 286 282 282 281 281 281 280 285 285 286 281 280 278
290 286 285 285 285 285 285 285 285 286 286 288 288 288 287 287 287 287 286 288 286 280 280 281 280 282 285 284 282 278 278 277

GFSFLT1_sfc_thetae_006.txt.gz
Theta_e
308 310 311 315 318 320 320 319 317 316 315 314 313 309 308 309 308 307 305 305 306 306 303 301 300 299 298 298 298 298 298 298
307 308 310 311 312 312 314 314 314 312 309 308 307 306 308 310 304 303 303 303 301 300 299 299 298 297 296 297 296 296 296 297
305 304 305 307 309 311 311 310 308 309 307 306 309 309 306 302 301 299 300 299 299 300 298 297 297 296 296 295 295 295 295 296
302 301 300 301 303 303 304 304 304 305 307 306 302 302 302 299 298 296 297 298 298 297 297 297 295 295 295 294 294 294 292 293
300 299 299 299 298 299 300 302 302 302 302 301 300 299 297 297 295 294 295 297 297 297 296 295 294 294 294 294 294 292 292 289
301 300 300 299 300 299 299 301 301 301 300 300 299 295 296 295 293 294 294 295 296 296 295 294 294 293 292 291 290 289 290 288
300 301 302 300 299 298 298 299 298 299 298 297 296 295 294 293 293 294 294 294 294 295 295 293 292 291 291 290 289 288 288 287
300 300 299 296 296 296 298 296 295 296 296 296 295 295 293 294 294 293 293 294 294 293 292 292 291 291 291 289 288 287 286 285
297 296 296 297 296 295 294 294 294 295 295 294 295 294 294 295 295 294 294 292 292 292 292 291 291 293 291 292 290 287 287 285
296 296 296 295 296 295 294 294 294 294 294 294 294 294 293 293 293 293 292 292 293 292 290 293 293 292 291 290 287 288 286 286
295 294 294 294 293 294 294 292 290 290 290 291 291 290 290 290 290 290 291 291 292 293 292 293 292 291 290 289 286 286 286 285
293 292 292 291 292 292 291 289 288 288 288 289 289 289 289 289 289 289 289 290 291 291 291 291 288 288 288 285 284 284 285 284
293 292 292 291 289 290 288 288 288 288 287 288 288 288 288 288 288 288 288 288 288 289 289 289 288 287 285 283 283 284 282 281
292 291 290 289 289 288 289 289 287 286 286 285 287 287 287 287 286 286 287 287 287 288 289 287 286 284 284 283 283 282 281 280
291 290 289 287 288 289 288 287 287 286 285 285 286 287 287 287 287 286 286 287 288 289 287 287 285 284 283 283 282 280 280 280
291 289 286 288 288 287 286 286 286 286 286 285 286 287 287 287 287 287 287 287 290 287 287 284 282 283 283 281 281 280 279 279
292 290 289 288 287 286 285 285 286 286 286 285 287 288 288 287 287 287 287 290 288 283 280 281 281 282 285 286 285 281 280 279
292 291 289 287 286 285 285 285 285 285 285 286 287 287 287 286 286 286 286 285 284 282 281 281 280 282 286 285 283 279 278 278
291 290 286 285 284 284 284 284 284 284 284 285 286 286 285 285 285 285 285 285 284 280 280 280 280 281 283 283 281 277 277 276

GFSFLT1_sfc_thetae_009.txt.gz
Theta_e
314 317 321 325 326 327 326 326 325 322 318 316 316 315 314 315 312 308 310 310 310 310 309 309 309 307 307 307 306 305 305 303
314 317 320 321 323 323 322 321 321 320 316 315 315 315 314 309 309 309 309 309 308 309 307 307 307 306 306 306 305 302 301 304
310 315 319 321 321 320 320 319 317 316 317 317 318 317 312 307 307 307 306 307 306 306 307 307 307 306 306 305 303 300 302 303
309 311 314 316 315 315 315 315 315 314 315 314 312 311 310 308 305 305 305 306 306 306 307 307 306 306 304 303 302 301 298 300
305 305 306 307 307 309 310 310 310 309 310 310 310 309 307 306 304 305 306 306 306 304 305 305 305 304 303 302 300 299 298 294
304 305 306 306 307 308 308 308 307 307 308 309 307 306 305 304 305 304 304 305 304 303 303 303 303 302 301 300 298 297 296 294
305 306 306 305 306 307 306 305 304 305 306 306 306 305 303 303 303 303 303 304 305 304 302 302 301 300 299 298 297 295 295 294
305 305 304 304 304 304 303 303 301 303 303 303 302 302 302 302 302 301 301 301 301 302 301 300 299 298 297 298 296 295 294 293
304 303 302 301 301 301 302 302 301 301 302 301 301 299 298 297 297 297 296 297 298 301 301 299 298 299 298 297 296 295 295 294
303 302 301 301 301 301 300 298 297 297 297 297 296 296 296 295 296 296 295 297 298 300 299 298 299 298 297 296 295 295 294 294
300 299 300 301 301 298 297 296 295 295 295 296 295 295 295 296 296 295 295 297 298 299 298 298 297 298 296 295 294 294 292 293
298 298 298 299 297 296 295 294 295 294 294 295 295 295 295 295 295 295 295 296 297 298 298 296 297 295 295 294 293 292 291 292
297 296 295 295 295 294 293 295 294 294 294 294 294 294 295 294 294 294 295 294 296 295 294 294 294 294 294 292 291 291 290 289
296 295 293 293 293 293 294 293 292 293 292 293 293 293 293 294 294 294 294 294 293 294 294 292 292 293 291 290 290 289 288 287
297 295 293 293 293 294 293 293 293 292 292 292 292 293 293 293 294 294 294 294 294 294 293 293 293 291 289 289 288 287 286 286
295 294 293 293 292 293 294 293 293 293 292 291 292 293 294 294 293 293 293 294 295 293 290 288 288 288 287 287 287 286 286 286
296 295 293 292 293 294 292 292 292 292 291 291 292 292 293 293 292 292 293 293 293 290 289 288 287 286 286 286 286 285 284 282
295 295 295 294 293 293 292 291 291 290 290 291 291 291 292 292 291 291 291 292 293 292 288 288 287 287 284 283 282 282 281 281
296 296 295 294 292 291 291 290 289 289 289 290 290 291 290 291 290 290 291 291 291 291 288 287 286 284 282 281 281 282 281 280

GFSFLT1_sfc_thetae_012.txt.gz
Theta_e
322 325 328 331 332 334 335 331 331 332 330 324 320 319 320 320 319 317 316 316 315 317 315 314 313 312 311 310 310 310 308 308
324 326 330 331 332 332 333 331 331 330 327 323 319 319 320 318 316 315 314 314 313 313 312 312 312 310 310 310 308 307 306 307
322 327 329 330 331 331 331 330 330 328 325 323 323 322 320 315 315 313 312 311 311 310 311 310 310 308 309 309 307 304 304 305
322 324 326 327 327 327 325 324 323 322 322 321 320 319 316 314 313 313 311 311 311 310 310 310 309 308 306 307 306 304 301 303
318 318 320 319 320 322 321 320 318 317 316 317 316 315 314 312 313 312 311 311 311 310 309 309 308 307 306 306 304 303 301 298
313 314 314 314 316 316 316 315 314 315 316 316 314 312 311 311 311 309 310 311 311 309 308 308 307 306 306 305 303 301 300 299
311 312 312 313 314 315 315 313 312 313 313 312 312 309 308 308 307 305 304 303 303 303 303 306 307 306 305 303 302 301 299 297
310 310 311 311 312 312 311 311 309 310 310 309 308 307 304 302 300 299 298 298 299 300 302 303 304 304 303 302 300 299 297 295
311 311 311 311 310 310 310 309 307 307 305 303 302 300 300 299 299 299 298 298 298 300 302 303 304 303 301 299 300 299 297 296
310 310 309 309 309 310 308 305 303 302 302 300 299 301 300 299 300 300 299 299 298 300 303 303 302 301 300 300 299 297 296 295
310 309 308 309 308 306 305 304 302 301 299 300 300 299 300 300 300 298 298 298 299 300 301 301 301 299 299 299 297 296 294 294
309 308 308 308 306 304 303 302 300 297 300 300 300 300 299 299 299 298 298 298 298 298 299 300 298 298 297 297 297 294 293 293
308 306 306 305 303 302 301 301 300 299 299 299 299 300 299 298 298 297 298 297 298 297 297 297 297 297 296 296 295 293 292 292
306 304 303 302 301 300 300 299 298 299 298 298 299 298 298 297 297 297 297 297 297 297 297 296 296 296 296 295 293 292 292 292
304 302 302 301 300 300 299 299 301 299 297 297 297 297 297 298 297 297 296 296 296 297 296 296 296 295 294 292 292 292 292 291
303 302 302 301 300 301 300 301 300 299 297 296 297 297 298 297 297 296 296 296 296 296 295 294 293 292 291 291 291 291 291 289
303 303 302 300 300 299 300 300 298 298 296 296 297 297 296 296 296 296 295 295 295 295 295 294 293 292 286 285 285 288 288 287
303 303 302 300 299 300 300 298 298 296 295 295 295 295 294 295 295 295 294 294 295 294 295 294 293 293 284 283 282 287 286 285
305 304 302 301 299 300 300 297 295 294 294 294 294 293 293 294 294 294 294 294 294 293 293 293 292 288 282 281 281 287 286 284

GFSFLT1_sfc_thetae_015.txt.gz
Theta_e
326 327 328 328 331 335 336 335 334 331 330 331 330 328 325 324 323 320 319 318 317 318 317 316 315 314 313 313 312 312 310 308
326 329 331 331 334 334 332 331 331 331 330 328 324 321 322 322 320 318 317 316 315 315 315 315 314 312 312 312 310 308 305 306
325 328 331 332 332 333 330 331 331 331 328 325 324 323 322 319 317 317 315 315 314 313 314 313 312 310 310 309 308 305 304 304
324 327 329 330 330 331 331 330 329 327 325 324 324 322 318 316 315 314 314 314 313 313 312 312 311 309 306 307 306 305 301 302
325 326 327 328 328 329 327 325 323 323 322 319 318 318 314 314 314 314 314 313 313 311 310 309 309 307 306 305 305 304 302 299
321 321 321 322 323 322 322 320 317 318 319 319 317 315 314 313 313 310 311 309 307 304 304 304 305 306 306 306 305 303 302 300
317 318 317 317 319 319 318 316 316 317 317 316 314 312 309 308 305 302 302 301 302 302 302 303 303 304 305 305 304 303 301 300
314 313 313 315 316 317 316 315 313 314 313 311 309 306 304 301 301 300 299 299 299 300 301 302 302 303 304 303 302 301 300 298
312 313 314 314 315 315 314 313 311 310 307 305 304 302 300 301 301 300 300 299 299 300 301 303 303 303 303 302 301 301 299 297
313 314 314 315 314 313 314 312 308 306 305 304 302 302 301 301 301 301 299 300 298 299 301 301 302 302 301 302 300 299 299 297
313 314 313 314 313 314 312 309 306 306 303 302 301 301 302 302 302 300 299 299 299 299 299 299 300 301 302 300 299 298 296 296
313 313 313 313 313 311 308 306 306 303 302 301 302 301 301 302 301 300 299 299 299 298 298 298 298 299 299 298 297 297 296 294
314 313 312 311 310 308 306 306 304 303 302 301 302 302 301 300 300 299 299 298 298 298 298 297 297 297 297 296 295 295 294 293
314 312 311 310 308 307 305 305 304 302 301 301 301 300 300 300 299 299 299 298 297 297 297 297 296 296 295 296 296 294 293 293
314 311 309 309 308 306 304 304 304 303 300 300 299 300 300 299 299 299 298 297 297 297 297 296 296 295 294 294 293 292 292 292
312 310 308 308 307 305 304 305 305 302 300 299 299 300 299 299 298 298 297 297 296 296 296 295 296 294 292 292 292 292 291 291
310 309 308 307 305 304 304 304 302 301 299 298 299 298 298 297 297 297 297 296 296 296 295 295 294 294 286 285 285 289 289 289
309 308 308 307 306 304 303 302 302 300 299 298 297 297 296 296 295 295 295 295 296 295 295 294 294 294 285 283 282 287 288 288
309 309 309 309 307 304 303 302 300 298 297 296 296 295 293 294 294 294 295 296 295 294 293 294 293 289 284 282 282 286 288 287

GFSFLT1_sfc_thetae_018.txt.gz
Theta_e
323 324 325 325 332 334 332 333 332 330 329 329 329 328 325 323 322 318 318 316 316 315 315 312 312 311 309 309 308 307 305 302
325 328 330 332 333 333 332 329 329 329 327 326 325 321 321 320 317 317 316 314 314 312 312 312 311 308 308 307 304 302 301 302
324 327 330 332 332 333 331 329 328 330 330 326 322 321 321 317 316 315 314 314 312 311 311 309 309 307 306 305 302 301 300 300
323 326 328 331 328 330 328 329 330 331 325 323 322 319 316 313 313 312 312 312 311 310 310 308 307 305 303 302 301 300 297 297
323 325 327 327 327 330 330 330 327 323 323 321 319 314 311 313 312 312 311 312 309 305 304 303 303 304 302 302 302 299 298 294
322 325 327 327 328 327 325 322 321 320 319 319 316 313 312 311 309 307 305 303 303 302 301 301 300 300 301 302 301 299 297 296
323 324 323 321 322 321 320 316 316 317 316 314 312 308 306 302 301 299 300 300 300 301 301 300 301 300 300 301 300 299 297 296
318 317 316 317 317 316 316 315 313 314 312 310 307 304 303 300 299 300 299 298 297 298 298 299 299 300 301 300 298 297 297 295
315 314 314 314 315 315 314 313 311 311 307 304 304 303 301 301 300 299 298 297 297 298 298 298 299 301 300 298 297 297 296 295
312 313 314 314 314 314 313 312 310 307 305 304 302 302 301 301 301 299 298 297 297 297 297 297 298 299 299 298 296 296 296 295
312 312 313 314 314 313 314 312 307 304 304 303 302 302 303 302 300 298 297 297 297 297 297 296 296 297 299 298 296 296 294 293
312 312 314 314 314 313 313 309 305 304 302 302 301 302 302 301 299 298 297 297 297 296 296 296 296 295 295 294 294 293 293 292
313 313 313 312 312 312 309 306 305 303 302 302 301 302 302 299 299 298 297 296 297 296 296 296 296 295 295 294 293 293 292 291
313 313 311 311 311 310 307 306 305 303 302 301 300 301 299 299 298 298 298 297 296 295 295 295 294 294 293 293 293 293 291 290
313 312 311 311 310 308 307 306 305 303 302 300 299 300 299 298 298 297 297 297 295 295 295 295 294 293 293 292 291 290 289 289
312 313 312 310 310 308 307 305 305 304 303 299 300 300 299 298 298 298 297 296 295 295 294 294 294 293 292 289 288 287 287 287
312 313 312 310 309 308 306 304 304 305 300 299 300 298 298 297 296 297 296 296 295 294 293 294 293 294 287 286 285 283 286 285
310 311 312 310 309 308 305 304 305 302 300 299 299 298 296 296 296 295 294 294 294 294 293 293 292 288 286 285 283 282 284 284
310 310 311 310 310 308 305 304 303 300 298 297 297 297 294 294 294 293 294 294 293 292 292 292 291 287 286 284 282 281 283 283

GFSFLT1_sfc_thetae_021.txt.gz
Theta_e
316 316 321 326 326 326 326 327 325 324 323 322 323 320 317 317 315 312 311 310 310 310 309 308 307 305 304 303 301 300 300 298
317 319 318 326 326 326 328 325 324 324 320 320 319 315 315 310 309 310 309 309 309 307 306 306 305 303 302 302 299 298 297 297
319 320 321 327 326 326 326 326 325 324 323 324 319 314 312 309 309 308 308 308 307 307 305 304 303 302 300 299 298 296 297 295
318 321 321 326 325 325 325 324 325 324 324 316 313 310 308 307 306 305 307 308 307 304 301 299 299 300 298 297 297 296 293 294
320 321 321 323 323 323 325 325 325 326 320 314 310 307 305 306 306 306 302 300 299 299 299 298 296 296 295 297 299 296 294 291
318 320 322 323 325 324 323 323 319 315 314 313 309 306 304 302 299 297 296 297 298 297 298 296 295 296 296 296 296 295 294 293
318 322 323 323 320 318 315 311 310 309 308 306 304 302 297 296 294 294 294 295 296 296 296 295 295 296 296 296 295 294 294 293
316 315 313 312 311 311 308 309 307 306 303 299 298 297 296 294 293 294 294 293 293 292 294 294 294 296 297 296 294 294 293 292
312 311 310 309 309 308 307 307 306 304 301 298 297 296 295 295 295 294 294 293 292 293 293 293 294 295 296 295 294 294 294 292
309 309 309 308 308 308 306 306 304 300 298 297 296 296 296 296 295 295 293 293 294 293 293 293 293 293 295 295 294 293 293 292
308 308 308 309 309 308 306 305 302 299 298 297 297 296 297 296 296 295 294 293 293 293 292 293 292 292 292 295 294 294 291 290
307 307 309 310 309 307 306 302 299 297 297 297 296 296 298 297 298 294 295 293 294 293 293 292 292 292 292 291 290 291 290 290
307 307 308 308 308 307 306 300 299 298 297 298 297 298 299 297 296 296 293 293 293 293 293 293 293 292 290 290 290 291 291 289
307 306 308 308 307 307 305 301 299 298 298 297 297 299 299 297 296 295 294 293 292 293 293 293 293 291 290 291 290 290 288 289
307 306 307 307 307 306 304 301 300 299 297 296 297 298 298 296 295 295 295 294 293 292 293 293 293 292 292 291 289 287 287 287
306 306 306 306 306 304 304 302 300 298 297 297 297 299 297 296 295 295 294 294 293 293 292 292 293 292 291 288 287 286 284 284
305 307 307 306 306 304 304 301 300 299 298 298 298 297 296 295 294 293 293 294 293 293 292 292 291 292 288 288 286 283 284 283
304 306 307 305 305 305 301 300 301 299 298 298 298 295 294 293 293 293 292 291 291 292 291 291 290 288 288 287 285 281 282 282
303 304 305 305 304 303 300 300 300 298 296 294 294 293 292 292 292 291 291 291 291 290 290 290 289 287 287 286 284 280 281 281

GFSFLT1_sfc_thetae_027.txt.gz
Theta_e
320 322 325 326 325 325 323 322 319 318 318 317 315 313 312 313 310 309 308 309 307 305 303 303 302 300 299 297 296 295 295 294
322 324 325 323 322 322 323 319 318 319 318 316 312 311 311 309 308 307 307 306 305 303 302 301 301 299 297 297 295 294 294 292
321 322 322 320 321 322 322 320 319 319 319 317 315 312 309 306 305 305 305 304 303 303 301 299 298 297 296 295 295 293 293 292
315 320 320 319 319 320 322 321 320 319 319 317 310 307 305 303 302 302 303 304 301 298 297 295 295 294 293 293 294 293 291 291
313 317 318 319 319 321 322 322 321 320 319 317 313 310 305 302 302 301 296 297 296 296 295 295 295 294 293 293 296 293 291 289
312 314 319 320 320 321 321 322 321 321 318 316 312 307 303 303 300 294 294 295 296 295 295 294 294 294 294 294 293 292 292 291
313 316 319 320 320 320 320 320 320 320 318 314 310 303 301 299 293 293 293 293 293 294 294 294 296 297 294 293 292 292 291 290
315 318 319 319 319 320 320 318 313 315 313 308 305 303 302 299 294 293 292 292 292 293 295 295 295 297 295 294 294 291 291 289
316 319 320 319 320 319 319 313 307 305 304 302 298 298 299 297 296 294 294 294 294 295 294 295 293 292 293 294 293 291 290 289
315 318 319 318 316 312 309 306 302 301 300 298 297 297 298 297 296 296 295 295 295 295 294 294 292 291 290 291 291 291 291 290
312 313 312 312 311 308 304 302 301 300 299 299 299 298 297 296 295 295 295 295 296 294 294 293 291 290 291 291 291 292 290 288
311 312 311 310 308 306 304 301 298 297 298 296 296 295 296 295 295 295 295 295 294 294 294 292 290 290 291 290 289 288 288 288
311 311 308 306 306 306 304 302 299 298 298 297 296 295 296 295 294 295 295 294 294 292 292 291 290 291 291 289 287 288 287 287
308 307 307 306 306 305 305 302 298 295 297 296 295 295 295 295 293 293 292 292 291 291 290 290 291 291 290 288 288 288 288 287
305 304 306 307 307 305 304 301 299 299 299 296 296 295 296 296 295 292 292 291 290 289 290 291 292 290 290 290 288 287 286 286
302 302 304 305 305 304 303 300 301 299 297 296 296 298 297 296 294 292 291 291 291 290 291 292 290 290 290 289 288 286 284 284
302 302 303 303 304 303 301 301 300 298 296 296 298 298 296 293 293 292 291 292 292 291 291 290 289 290 290 291 287 284 284 283
302 301 302 302 302 303 301 300 299 297 296 298 297 295 293 291 291 291 291 291 291 291 290 290 289 288 290 290 289 283 282 282
295 294 299 301 301 301 299 296 295 295 293 293 293 292 291 292 292 291 291 292 291 290 289 289 288 288 289 289 288 282 281 281

GFSFLT1_sfc_thetae_030.txt.gz
Theta_e
318 317 319 322 323 324 323 322 319 317 317 315 313 311 312 311 309 309 310 307 306 304 302 301 300 299 297 296 295 295 295 294
318 318 320 323 322 321 321 318 317 317 316 313 310 310 310 308 307 307 308 305 304 302 301 300 299 297 296 296 295 294 293 292
318 317 320 322 322 322 321 320 318 318 318 314 313 311 309 306 305 305 305 304 302 302 300 298 297 296 295 295 294 293 292 291
317 319 320 321 321 321 321 320 318 319 318 314 308 308 304 302 301 301 302 302 301 298 296 294 294 293 293 293 294 293 291 290
315 318 319 319 320 321 322 320 319 318 319 315 311 310 306 303 301 300 296 297 296 295 295 295 294 294 293 295 295 294 291 290
312 314 319 320 317 319 320 320 319 318 319 317 312 309 307 304 300 294 294 294 294 295 295 295 294 295 296 296 294 292 292 291
309 311 315 316 316 317 319 321 320 319 317 314 311 306 305 302 297 293 295 292 293 293 294 293 295 297 295 294 293 292 291 290
309 311 313 316 316 318 319 321 319 319 317 314 310 309 306 302 296 294 292 292 293 292 293 294 295 297 296 294 292 292 291 290
311 314 315 316 317 317 320 320 319 316 316 312 311 308 306 303 296 294 294 294 294 294 295 293 295 296 294 294 293 291 291 290
310 315 317 317 317 317 319 317 317 313 311 308 306 304 302 298 298 295 294 295 295 295 295 295 294 292 293 293 293 292 291 289
310 314 316 317 318 319 317 314 311 309 306 304 302 301 301 299 296 295 296 296 295 295 295 294 293 292 292 292 291 291 290 289
310 313 315 314 314 309 310 306 303 301 301 300 298 298 298 299 298 297 295 295 296 295 294 293 292 292 292 291 291 290 288 287
308 310 309 308 309 307 307 302 299 298 298 298 298 298 298 296 295 295 295 295 295 294 294 292 292 292 291 290 288 288 287 287
307 307 307 307 307 306 305 302 299 299 298 299 297 296 294 293 295 295 295 294 293 292 292 291 291 291 290 289 288 288 287 287
305 305 305 304 304 305 304 301 298 299 297 297 295 294 294 294 295 294 294 293 292 292 292 292 292 292 291 290 288 287 286 286
303 303 303 304 305 304 303 300 299 299 298 296 294 294 295 295 296 294 293 293 292 292 292 292 292 292 290 289 288 286 285 284
301 301 302 303 304 303 303 300 299 299 297 295 297 297 296 294 293 293 293 292 292 292 291 291 291 291 290 290 289 285 284 283
296 298 300 300 301 302 300 299 298 297 295 296 296 296 294 292 292 292 291 291 291 291 292 291 290 290 290 290 290 285 283 283
291 291 293 294 298 297 296 295 294 293 293 293 294 293 292 293 292 291 292 292 292 292 291 290 289 288 289 289 289 285 283 282

GFSFLT1_sfc_thetae_033.txt.gz
Theta_e
321 322 323 322 324 325 326 328 330 329 327 326 325 324 323 324 324 323 320 316 315 314 312 312 310 308 307 307 307 306 306 306
322 323 323 324 325 325 327 328 329 326 324 323 323 320 320 319 319 319 317 315 313 312 310 310 309 309 307 307 305 304 304 305
321 322 322 323 324 326 328 328 327 327 326 325 323 320 320 317 315 317 314 314 312 311 310 309 308 306 306 306 305 303 304 304
321 320 321 323 324 327 328 329 327 327 326 323 318 316 315 313 312 312 312 312 311 310 309 307 305 304 303 304 305 303 300 301
321 322 322 322 325 328 329 328 327 327 325 323 319 318 315 315 312 312 310 310 308 307 305 304 304 304 303 303 303 301 302 299
319 322 324 325 326 327 329 328 326 326 323 323 321 320 318 313 310 308 305 305 305 303 304 304 304 303 304 304 303 301 302 301
316 321 324 325 327 327 327 325 325 324 323 323 320 318 313 309 304 303 302 302 302 303 302 303 304 304 303 302 299 300 301 301
315 315 318 323 323 324 325 323 322 321 321 321 320 315 312 310 303 301 301 300 300 301 302 302 302 302 301 298 299 302 301 300
315 316 318 320 322 323 325 324 323 320 321 321 319 316 315 310 305 303 302 302 301 301 301 302 302 301 300 302 302 301 301 301
312 315 317 319 322 322 325 325 324 323 321 321 318 317 315 310 307 307 304 303 300 300 301 298 300 300 298 299 300 300 301 301
311 314 318 320 322 323 325 325 324 325 322 321 320 318 315 313 309 305 302 302 300 300 300 300 299 296 299 298 299 299 300 300
312 315 320 321 323 323 323 324 324 322 321 320 318 316 314 310 306 304 303 302 301 299 298 299 295 296 297 297 297 298 298 299
314 317 319 320 321 321 321 321 320 319 316 313 314 312 309 307 306 305 304 301 300 298 297 295 296 295 296 295 295 296 297 296
313 315 316 317 317 316 315 314 314 310 309 310 310 307 307 306 305 305 302 300 298 297 296 295 294 296 295 295 295 295 295 295
312 313 313 313 313 314 315 311 309 307 307 307 306 305 306 305 304 300 299 299 295 295 296 297 297 296 295 294 296 294 294 294
309 310 312 312 311 311 311 310 306 306 304 304 304 302 302 301 299 298 297 297 296 295 296 295 295 295 295 296 296 295 294 294
305 306 308 309 310 311 308 307 305 305 304 303 301 301 300 298 297 296 295 294 294 295 295 295 294 295 292 291 291 294 294 293
300 301 302 304 306 307 307 306 304 303 302 301 300 300 297 296 295 294 292 293 294 295 295 295 294 295 291 290 290 293 294 294
295 297 298 299 300 300 300 300 300 300 299 298 298 297 295 293 293 293 294 296 295 295 296 295 294 293 290 289 288 292 293 293

GFSFLT1_sfc_thetae_036.txt.gz
Theta_e
321 323 322 322 324 325 325 328 330 333 333 329 327 331 334 335 334 332 330 327 325 325 323 321 319 317 315 314 312 311 310 310
323 323 324 323 325 326 327 328 331 333 330 326 326 328 331 332 333 332 330 327 324 323 320 319 318 316 315 314 311 307 308 310
322 325 324 324 325 326 328 329 331 332 331 327 329 330 331 330 329 328 327 325 323 321 319 317 317 315 314 312 309 308 310 309
323 324 327 326 325 326 327 330 332 334 333 329 329 330 328 324 323 323 323 322 320 319 319 317 316 314 311 310 308 308 307 307
324 326 326 328 327 329 329 330 332 334 334 329 326 324 324 325 323 322 319 318 319 317 317 315 314 312 310 308 309 310 308 305
323 325 328 329 329 329 331 332 332 334 334 332 328 326 328 327 323 320 318 318 317 316 314 311 310 310 309 310 309 307 308 302
323 326 328 329 330 330 331 331 331 333 331 328 327 326 326 323 320 318 315 315 314 311 308 309 311 309 309 310 307 308 304 305
322 323 325 328 330 331 331 331 327 330 329 325 326 326 326 320 320 317 312 306 306 306 308 309 308 309 309 308 308 304 305 304
322 323 325 327 329 332 332 331 326 325 323 325 327 327 326 322 322 312 306 305 305 308 308 309 308 305 306 306 304 303 304 304
319 323 324 326 327 331 332 331 329 328 324 321 324 324 324 323 322 311 308 309 309 309 308 306 306 305 305 305 302 303 304 305
316 318 321 325 326 329 331 332 331 330 324 324 324 324 324 324 322 315 313 312 312 308 307 305 303 302 303 303 300 303 304 304
317 319 321 323 325 328 329 330 331 331 327 327 326 326 325 324 322 317 314 313 311 305 306 304 301 302 301 300 301 302 300 300
320 321 323 324 325 326 327 329 329 330 331 330 327 326 325 322 318 316 314 311 309 307 306 303 299 300 300 299 299 297 298 298
318 321 323 324 325 326 327 328 328 329 328 326 325 320 319 318 314 313 311 310 309 308 306 301 298 299 299 300 297 296 297 298
317 320 321 322 324 324 324 324 325 322 320 320 319 317 314 313 312 311 310 309 308 305 299 298 298 299 298 297 298 298 299 297
314 318 320 321 321 322 322 320 319 318 317 316 316 315 315 314 313 311 309 306 302 298 296 297 296 297 297 298 298 296 297 296
313 315 317 317 318 318 317 315 314 315 313 312 310 309 308 307 304 301 299 297 295 295 295 297 297 296 292 292 293 294 297 296
309 310 311 312 313 315 313 312 312 311 309 308 307 306 304 302 299 297 294 294 296 296 296 297 297 298 293 292 291 292 294 296
306 307 308 309 309 309 309 309 308 307 306 305 304 303 301 300 298 296 295 296 296 296 296 298 298 297 292 291 290 295 295 295

GFSFLT1_sfc_thetae_039.txt.gz
Theta_e
320 320 322 324 322 321 321 325 326 329 328 328 325 325 327 330 334 333 333 331 330 330 328 327 325 322 320 318 316 314 312 312
322 321 322 322 323 322 323 324 327 329 326 324 323 321 326 331 335 333 333 332 330 330 328 325 324 321 319 318 315 312 310 313
320 322 321 322 323 323 323 324 326 329 329 326 324 325 326 329 332 333 333 332 329 329 327 324 322 319 318 316 314 311 313 313
319 321 323 323 324 325 326 327 328 331 331 328 326 327 329 328 329 329 331 331 328 326 325 323 321 320 316 316 313 313 311 312
320 322 323 324 325 329 328 329 329 331 333 329 326 324 325 327 329 328 328 327 325 323 321 322 321 319 316 315 312 314 312 309
320 322 324 326 327 329 330 329 330 332 333 334 329 326 327 330 328 327 327 323 322 321 321 321 319 316 317 315 313 313 310 309
320 323 325 325 328 331 332 329 328 330 334 333 331 329 328 329 327 324 323 322 321 321 319 319 316 313 314 312 313 311 311 309
320 320 322 325 327 330 331 329 329 331 332 333 329 327 328 328 327 324 322 322 320 319 314 310 311 310 312 313 312 307 308 306
320 320 323 325 328 331 330 330 329 331 331 331 328 325 325 327 329 325 323 322 318 311 308 308 309 312 312 310 306 309 308 307
320 320 322 325 327 331 334 331 331 331 331 327 327 327 326 328 327 326 324 316 309 307 308 307 310 311 307 307 307 303 305 306
318 320 322 324 327 329 335 334 332 331 329 330 326 327 329 329 327 324 320 314 311 310 309 309 309 307 307 307 303 305 304 305
317 319 321 324 326 328 331 333 333 331 330 330 325 326 326 326 326 323 317 314 312 311 311 309 306 306 306 304 302 301 302 304
319 321 322 323 324 326 328 331 332 332 332 328 326 328 327 325 324 322 319 316 315 313 310 306 305 306 304 300 298 301 300 298
318 322 323 325 325 326 328 330 330 332 332 327 327 326 325 323 322 320 317 316 313 310 307 305 305 302 300 299 300 299 299 299
316 320 323 325 327 328 328 329 331 331 330 329 327 321 320 319 316 315 312 312 310 309 307 304 301 299 298 298 299 298 299 298
313 319 322 324 325 326 327 327 327 326 323 323 321 320 318 315 313 312 311 310 308 302 301 298 299 298 298 297 298 299 299 296
315 318 321 322 323 324 323 322 321 322 320 319 318 317 316 314 313 311 309 303 301 298 297 296 297 296 293 293 294 299 297 295
315 317 319 320 320 320 318 317 317 316 313 312 311 310 308 307 304 302 300 299 299 297 298 296 296 296 293 292 292 297 294 293
313 314 314 315 315 314 314 313 312 311 310 309 308 307 305 303 302 300 299 299 298 296 296 296 298 298 292 292 290 292 294 296

GFSFLT1_sfc_thetae_042.txt.gz
Theta_e
318 316 315 316 315 315 315 315 314 314 314 317 321 324 323 323 323 328 329 329 331 329 328 325 322 320 318 316 311 309 308 307
321 318 318 317 318 315 315 314 316 318 320 321 322 319 322 323 328 329 331 330 329 327 326 324 322 319 317 316 312 307 305 307
317 318 318 319 318 317 319 318 321 324 324 322 322 321 321 324 329 331 330 329 328 327 325 322 321 318 317 313 311 307 308 308
317 317 319 319 317 318 319 322 323 325 326 325 323 323 322 323 325 328 329 329 328 326 326 322 320 319 314 313 311 308 305 306
318 318 318 319 320 321 321 322 323 325 327 327 321 319 318 323 325 326 327 329 327 324 323 321 320 318 314 313 313 310 308 305
317 319 320 320 322 323 323 324 325 326 327 328 325 321 324 327 326 326 325 325 324 324 320 318 318 317 317 312 310 310 310 304
318 321 322 322 323 324 326 325 326 327 329 328 327 322 324 325 324 322 322 320 320 320 319 318 318 317 313 311 310 310 306 304
318 318 320 322 323 323 325 326 325 327 329 329 328 327 326 324 323 323 321 318 318 318 318 317 314 312 311 309 310 308 306 302
318 318 320 321 324 325 325 325 324 326 328 329 329 329 326 326 325 324 321 319 319 319 318 312 310 309 309 309 309 307 305 303
318 319 320 323 324 326 327 326 326 327 327 330 328 328 327 325 324 325 321 321 318 313 311 309 308 309 308 306 304 304 303 302
317 318 319 322 325 328 329 328 326 328 329 331 329 328 325 323 325 324 322 319 312 310 309 307 307 307 306 304 304 303 302 301
317 318 320 321 323 325 329 329 329 328 329 330 328 327 325 326 325 324 323 313 312 310 308 307 306 305 305 303 302 301 300 300
318 319 320 320 321 324 329 331 330 329 330 329 328 326 324 323 323 322 316 313 312 311 309 307 306 305 304 302 301 298 299 297
316 319 321 322 322 324 327 329 330 329 329 328 327 322 324 322 322 319 315 313 312 311 309 306 304 304 302 299 298 299 298 298
313 318 321 323 324 325 326 328 330 329 329 327 324 321 320 316 315 313 313 312 309 307 305 304 302 300 299 298 298 297 296 297
312 316 321 323 325 326 327 328 327 327 327 322 319 318 317 314 313 312 310 309 308 304 301 299 298 297 298 298 297 296 296 296
311 314 321 322 324 324 325 322 323 323 321 317 318 317 315 314 312 310 307 304 300 298 297 297 296 296 293 295 296 296 296 296
314 316 321 322 323 322 320 320 321 319 315 314 315 314 311 308 305 302 299 298 297 296 296 296 295 296 293 293 292 294 294 293
315 318 319 320 320 319 317 317 314 312 310 309 309 307 304 302 301 299 298 297 296 296 295 296 295 296 292 292 291 292 293 293

GFSFLT1_sfc_thetae_045.txt.gz
Theta_e
310 311 311 312 312 314 313 313 314 313 313 312 313 313 313 313 317 319 326 325 326 325 324 322 319 317 315 313 309 306 304 303
311 311 311 311 311 312 311 311 312 311 311 309 310 311 314 318 319 326 321 321 326 325 323 320 318 316 314 312 308 304 301 303
311 310 311 310 310 311 311 310 311 311 313 313 314 315 319 320 324 324 324 324 325 324 321 319 317 316 313 310 307 304 302 303
313 310 310 311 309 310 311 311 311 312 314 318 319 317 314 316 320 322 324 327 326 325 322 320 318 316 312 309 308 305 301 303
314 312 313 313 313 312 313 313 313 314 319 320 317 316 314 315 318 323 325 326 325 324 321 319 319 318 313 311 311 308 308 305
313 313 315 315 314 314 315 317 316 319 321 321 320 316 316 317 318 321 323 323 323 322 320 318 316 315 313 312 311 310 309 306
314 316 316 316 315 314 315 316 318 320 322 322 322 318 316 318 319 320 319 321 318 321 319 316 315 314 313 312 310 309 307 307
314 313 314 315 316 315 315 316 317 319 319 322 322 321 320 320 320 319 319 317 317 317 317 315 315 313 312 309 309 308 307 304
314 315 315 315 316 317 318 317 317 319 321 321 323 323 322 321 321 320 320 319 319 317 316 314 315 313 310 308 309 307 307 305
313 316 317 317 317 317 319 320 320 322 322 324 324 324 322 321 320 319 320 318 316 315 314 311 310 310 308 307 307 306 305 303
312 314 317 318 319 320 320 321 321 322 323 324 324 325 322 321 320 318 316 315 312 312 311 309 307 307 307 306 304 304 303 302
310 313 316 317 322 323 322 322 322 323 323 324 325 324 322 320 319 318 318 311 310 310 309 306 307 306 305 304 304 302 301 300
309 312 314 314 319 321 322 323 324 324 324 324 326 324 321 320 320 320 318 313 311 309 308 307 306 305 304 303 302 301 300 298
310 311 312 313 314 320 322 324 324 325 324 326 323 322 321 321 320 317 312 311 311 310 308 307 305 304 303 302 299 298 298 298
309 311 313 315 316 318 322 324 325 325 325 325 321 319 319 317 314 313 311 312 309 308 307 305 304 302 300 299 298 297 297 297
306 311 313 315 316 318 321 321 323 324 324 320 315 313 313 312 312 311 311 310 308 305 303 301 300 298 298 298 297 296 296 295
305 313 317 319 319 319 318 318 318 321 318 316 315 313 312 312 311 309 307 304 302 300 298 298 296 297 293 294 295 295 295 295
306 311 318 319 318 318 315 316 316 315 315 315 314 314 312 309 305 302 299 298 297 296 296 296 295 295 293 293 293 295 294 293
309 315 315 316 316 315 315 314 310 311 310 310 308 305 302 300 299 298 296 295 294 291 292 293 294 295 292 292 290 292 292 293

GFSFLT1_sfc_thetae_048.txt.gz
Theta_e
310 311 312 312 313 314 315 315 314 315 315 314 313 314 314 314 313 315 317 320 323 322 321 321 317 315 313 311 309 306 303 302
309 310 310 309 311 313 313 314 313 313 312 311 311 311 313 313 313 315 318 321 324 322 321 320 317 315 314 312 307 303 301 302
309 309 308 309 310 311 311 311 311 312 312 312 312 312 312 312 313 315 320 319 321 324 322 320 317 314 312 310 306 302 301 302
307 308 308 308 309 310 310 310 309 310 311 310 309 309 310 311 312 315 319 319 319 323 322 320 317 316 313 311 306 304 303 305
309 308 308 307 309 310 310 310 310 311 312 310 309 309 308 312 313 317 319 321 322 323 322 319 318 316 313 312 309 305 305 304
309 308 309 309 309 309 310 310 310 311 311 312 312 314 316 314 314 315 320 320 322 322 321 318 317 319 315 310 308 308 308 307
313 310 310 310 310 309 309 309 310 311 311 313 315 316 315 312 313 315 317 321 322 321 320 320 319 318 315 311 310 308 308 305
313 310 311 311 311 309 310 310 310 312 312 314 316 318 316 313 314 316 317 318 317 319 319 318 316 315 312 312 310 308 307 306
312 313 312 314 312 312 310 311 313 313 314 316 318 318 320 318 317 318 318 319 318 320 319 316 314 315 311 309 309 308 307 306
312 313 314 314 314 312 312 312 314 314 315 317 318 320 320 320 320 318 319 319 316 315 316 314 313 313 310 307 308 307 306 305
313 313 314 315 316 315 314 313 313 315 316 318 318 319 320 321 319 318 319 318 316 314 313 313 310 309 309 307 306 306 305 303
311 314 315 315 316 316 316 316 317 317 318 319 320 321 321 321 321 320 319 317 315 314 313 310 309 308 308 306 305 304 303 300
311 311 315 315 316 316 316 318 318 319 320 321 321 323 320 320 320 320 318 317 314 313 311 308 308 307 306 304 303 303 301 298
308 310 312 315 316 317 317 318 318 320 321 321 321 321 320 321 321 323 323 315 312 311 310 308 307 306 304 304 303 301 300 299
307 308 312 314 313 316 319 319 320 321 321 322 321 322 321 322 322 322 319 314 311 309 309 308 306 305 303 301 299 298 298 298
304 308 310 311 313 315 316 319 319 322 322 321 321 322 322 320 317 313 311 310 310 308 306 305 303 301 300 298 298 298 297 297
303 309 311 314 317 318 318 318 320 322 321 321 322 318 317 314 313 312 309 307 306 304 303 300 298 298 293 294 296 296 296 295
302 309 314 316 318 317 316 317 320 321 322 319 315 315 314 312 310 307 304 303 302 299 298 297 296 296 293 293 293 295 294 294
302 310 314 315 315 314 313 314 314 315 315 314 313 310 308 306 305 302 300 300 299 297 296 296 296 295 292 292 291 292 292 292

GFSFLT1_sfc_thetae_051.txt.gz
Theta_e
308 313 313 313 314 315 315 316 317 317 315 314 315 314 313 313 313 318 322 322 324 321 319 318 316 314 312 310 307 305 303 302
308 310 312 312 313 313 315 314 315 315 314 314 313 313 313 313 313 316 317 318 322 321 319 318 315 314 312 311 306 304 301 300
307 307 310 310 312 312 314 314 314 315 316 316 315 314 313 313 313 314 316 318 318 320 319 318 316 313 312 310 306 302 301 301
306 307 308 307 309 308 312 312 312 312 313 314 312 312 311 309 311 311 313 317 317 319 320 318 316 314 312 310 307 304 301 303
307 306 305 306 307 309 310 310 310 309 311 310 308 309 308 310 309 310 311 315 317 317 319 319 317 315 313 312 311 307 306 300
307 307 307 307 308 308 309 310 310 309 309 308 306 306 307 308 309 309 311 315 317 320 319 318 318 316 315 313 310 308 308 306
309 309 308 307 307 307 308 309 309 309 309 309 308 308 309 309 310 311 313 315 317 318 319 318 317 317 316 314 313 310 308 307
310 307 307 307 306 307 308 308 308 309 309 309 310 309 311 312 312 312 313 314 316 318 317 316 316 317 317 317 312 310 308 307
311 310 308 308 308 307 307 308 308 309 309 309 310 312 314 315 315 314 313 314 316 318 319 319 319 318 319 316 314 312 310 308
311 312 309 309 309 309 307 308 308 309 309 310 310 311 313 315 317 316 315 315 316 315 319 318 318 316 315 311 311 308 308 307
308 312 312 311 312 312 310 309 309 310 310 311 311 312 315 316 317 318 316 318 316 314 316 315 314 313 311 308 306 308 307 305
308 310 313 313 314 313 312 310 311 312 313 313 312 313 316 317 318 318 319 317 317 316 315 315 313 310 309 307 306 306 305 304
309 311 313 313 313 314 313 312 311 311 313 315 315 315 317 317 318 319 319 319 317 317 316 315 313 311 309 307 305 305 304 302
306 309 312 312 313 314 314 314 313 313 313 314 315 316 317 318 319 320 320 320 319 318 315 312 311 309 308 306 305 303 302 301
304 306 309 312 313 314 314 315 316 315 315 315 315 316 318 320 321 320 320 320 319 313 311 311 311 308 307 305 305 302 300 299
303 305 308 310 312 314 315 315 315 317 316 317 316 317 319 320 319 320 321 319 316 312 309 309 306 306 304 304 301 299 298 298
301 307 308 309 311 313 314 316 316 317 316 317 318 319 319 318 319 320 316 312 312 310 309 307 304 303 295 295 297 298 298 297
302 302 309 310 311 312 312 314 315 317 317 318 318 319 319 318 316 312 311 309 306 304 302 303 301 298 293 294 294 297 296 295
301 301 308 312 313 313 312 315 316 316 317 317 318 318 317 312 310 308 304 303 301 300 299 298 299 296 292 292 291 294 294 293

GFSFLT1_sfc_thetae_054.txt.gz
Theta_e
308 310 313 314 314 316 316 318 320 319 318 316 316 315 314 317 319 319 319 320 320 318 317 316 315 314 311 309 306 305 304 301
308 309 310 312 313 315 315 316 317 316 316 316 315 314 313 313 316 319 321 322 323 320 319 318 316 313 313 310 307 304 302 302
307 307 311 310 312 314 315 315 316 317 316 317 318 316 315 314 313 315 318 319 321 321 319 317 315 313 311 309 306 303 303 301
305 306 309 310 311 311 314 314 315 316 317 316 314 315 313 312 312 311 314 317 317 319 319 317 315 313 311 309 307 304 302 301
305 305 307 308 310 310 312 313 313 314 316 314 314 313 311 313 312 311 312 316 317 317 318 318 316 314 312 311 310 306 305 303
306 306 306 308 307 308 307 311 312 312 312 313 314 314 314 313 310 310 311 312 316 317 315 315 316 315 314 313 311 308 308 307
308 307 306 305 306 308 307 308 309 309 308 309 309 310 308 308 308 308 308 310 311 314 315 315 315 315 313 312 311 310 309 309
308 305 305 305 305 306 308 308 308 309 308 307 307 307 308 307 308 308 308 309 310 312 312 313 313 314 314 314 313 313 311 310
309 308 306 306 306 306 307 308 308 309 308 308 308 308 308 309 310 310 310 311 311 312 314 315 314 315 315 316 316 314 313 311
310 310 308 307 307 306 306 307 308 308 308 309 308 309 309 309 310 312 313 312 313 312 314 316 317 318 317 317 317 315 312 311
308 311 310 309 309 308 308 308 307 308 308 309 309 309 309 310 311 312 313 314 312 312 312 314 316 318 318 318 316 313 309 307
304 310 312 310 310 309 309 308 308 308 309 309 309 309 309 310 311 313 314 314 313 314 313 314 315 315 315 313 314 311 309 307
304 305 310 310 309 310 310 309 308 309 310 310 309 310 311 310 311 314 315 316 317 317 317 316 316 314 312 311 310 308 307 304
304 305 307 311 310 311 311 311 309 310 310 310 311 311 311 311 313 315 317 317 317 317 318 316 316 314 312 311 311 309 307 305
302 305 308 310 311 312 313 312 312 311 310 310 310 311 312 313 314 315 316 318 317 318 316 317 316 314 312 311 309 307 305 303
300 303 306 310 310 311 313 313 313 313 311 310 310 311 312 313 314 316 317 318 318 318 318 317 314 312 309 308 307 305 303 301
301 301 304 305 310 311 312 313 313 314 313 312 312 312 312 312 314 316 317 318 318 319 316 314 310 308 300 298 303 302 301 300
301 301 303 307 308 311 311 312 313 313 313 314 314 314 313 314 315 317 318 318 317 312 310 309 308 308 298 295 295 299 298 297
301 302 301 305 308 310 311 311 312 313 313 313 313 314 315 315 317 317 316 311 309 307 303 304 301 297 294 293 293 296 295 295

GFSFLT1_sfc_thetae_057.txt.gz
Theta_e
314 315 317 317 318 319 318 321 319 320 320 321 323 323 322 322 322 323 324 323 323 324 323 322 321 320 318 317 315 314 311 309
314 315 317 316 317 318 317 318 318 319 318 318 318 318 319 322 323 324 324 324 323 323 323 322 321 320 320 319 317 314 311 310
312 314 315 315 315 316 317 318 319 319 319 319 321 318 316 322 324 324 324 324 323 324 323 323 322 321 321 320 318 315 314 310
310 310 313 314 314 316 316 317 318 319 321 320 319 318 315 315 317 320 322 324 325 325 325 325 323 323 322 321 319 317 313 311
311 309 310 312 315 317 318 318 317 318 319 319 316 316 312 317 316 315 317 320 321 324 323 323 322 322 321 321 320 318 317 314
311 310 311 313 315 314 317 317 316 317 318 320 317 314 316 317 315 313 316 318 320 319 320 321 323 323 324 322 320 317 318 316
313 313 313 312 314 314 315 317 314 315 316 317 317 315 314 312 313 312 312 313 316 317 317 317 322 324 324 324 323 321 319 318
313 311 310 310 309 311 313 315 315 315 315 317 317 316 316 314 313 313 314 312 314 316 319 319 322 323 323 324 323 322 321 320
313 313 312 311 310 311 312 313 314 315 314 314 316 318 318 318 318 317 317 315 316 320 319 320 321 322 322 323 324 323 322 321
313 314 313 313 312 312 312 313 314 315 315 315 315 315 316 316 318 318 318 319 318 318 319 320 321 321 322 322 323 322 321 320
313 314 313 314 314 313 313 314 313 315 315 316 315 315 315 316 317 317 317 319 319 319 319 320 321 321 322 322 323 322 319 318
311 315 315 314 314 313 312 313 313 314 315 315 316 315 316 316 316 317 317 319 319 318 318 318 319 320 322 323 322 320 317 316
311 313 316 315 313 313 312 312 313 314 315 315 315 316 316 316 316 317 318 318 320 319 320 319 320 321 320 321 319 318 316 314
310 309 313 315 314 314 313 313 314 314 314 314 315 314 314 313 313 314 315 316 317 320 321 321 319 319 317 315 317 316 314 313
306 310 311 314 315 314 314 315 315 315 314 314 314 314 314 314 315 315 315 316 316 318 319 320 321 321 318 316 314 314 313 311
305 306 311 313 314 316 316 316 316 316 314 314 314 315 316 316 316 317 317 317 316 318 319 318 320 320 319 319 315 313 311 308
307 307 307 310 313 314 316 316 317 317 315 314 315 316 316 316 317 317 318 318 319 319 320 318 318 318 305 301 308 312 310 308
306 306 308 309 311 314 315 317 318 317 316 316 316 316 315 315 316 316 317 318 320 320 319 319 318 319 300 299 299 309 306 303
306 307 309 310 311 313 316 316 317 317 316 316 316 316 315 315 315 315 317 319 319 318 317 316 315 311 298 298 295 301 299 298

GFSFLT1_sfc_thetae_060.txt.gz
Theta_e
319 320 322 323 325 321 323 322 321 321 320 321 323 321 321 323 323 327 325 324 326 325 323 325 325 323 322 322 320 319 317 316
320 320 323 323 323 323 319 320 320 320 318 318 319 319 319 321 321 324 326 325 326 326 325 326 326 324 324 324 322 320 317 317
318 319 321 321 322 322 320 319 319 319 321 319 320 322 322 321 321 322 325 327 326 326 325 325 325 325 325 325 323 320 319 317
318 318 320 321 320 318 322 322 319 319 320 321 320 321 318 319 320 319 322 327 328 325 325 326 326 325 324 325 324 322 319 319
319 319 319 320 321 321 322 322 322 321 322 319 319 315 316 317 320 322 323 326 327 326 324 327 327 327 325 326 326 324 324 320
319 319 320 320 322 321 320 321 322 320 321 321 318 317 316 317 319 322 324 324 325 325 325 328 328 328 328 327 326 324 324 323
320 321 321 320 321 322 319 319 320 320 320 320 319 318 316 316 317 317 318 321 324 325 325 328 328 326 323 320 324 326 326 324
319 319 319 320 319 320 320 317 317 320 319 320 321 322 320 315 315 317 318 321 321 322 324 326 324 323 322 321 324 327 328 325
319 320 320 320 319 320 319 319 317 318 320 319 322 323 322 316 318 318 317 318 320 320 319 323 323 321 322 326 325 324 326 326
319 321 321 321 320 319 319 319 321 320 319 320 320 323 323 322 321 319 319 322 318 318 318 320 323 324 324 324 325 324 326 326
319 321 321 322 322 320 320 320 320 322 323 323 323 324 323 324 325 323 323 324 324 322 321 321 322 323 323 323 324 325 325 326
319 320 322 323 323 321 320 319 320 321 322 323 323 322 323 324 323 325 324 326 325 324 323 322 321 322 323 324 324 323 323 325
318 321 322 321 322 322 321 320 319 320 322 322 322 323 323 322 323 323 326 325 326 325 324 324 323 323 325 324 324 322 323 324
317 318 320 321 321 322 321 321 320 321 320 321 321 322 322 322 323 323 323 323 324 323 323 324 324 324 324 324 323 323 324 321
313 316 318 320 321 322 321 322 322 321 320 320 320 322 322 322 322 323 323 322 321 321 323 323 322 323 322 323 322 323 321 318
313 313 315 318 319 322 322 322 322 322 321 319 321 322 321 321 321 321 321 321 321 321 321 322 323 321 321 323 321 321 318 316
312 313 314 314 317 320 322 322 322 322 321 320 320 321 321 320 320 320 320 321 320 320 320 320 321 321 308 302 312 323 319 317
309 310 311 313 315 317 320 322 323 322 321 320 320 320 320 320 320 320 319 320 321 320 321 321 322 324 303 300 300 320 317 316
311 311 312 313 314 315 318 321 323 322 322 321 321 320 320 320 320 319 320 321 321 321 322 322 320 319 302 299 298 312 314 311

GFSFLT1_sfc_thetae_063.txt.gz
Theta_e
323 322 325 327 328 328 326 325 324 323 323 323 324 322 322 322 323 325 326 324 325 325 325 327 324 323 322 324 324 323 321 319
324 322 324 326 327 326 324 323 321 318 320 321 320 319 320 321 323 323 326 322 324 325 325 326 326 322 322 326 322 321 318 319
322 322 323 325 325 324 322 321 320 318 319 321 321 320 319 320 322 323 325 325 326 327 326 325 325 325 327 325 325 320 319 319
321 320 322 324 325 323 323 322 320 320 318 320 321 321 320 317 319 320 322 324 325 327 328 327 327 328 326 327 327 325 319 320
322 321 321 323 324 325 326 324 321 321 321 319 318 319 317 319 318 321 321 321 326 326 324 325 328 327 327 328 327 327 325 320
322 322 322 323 325 324 324 324 323 322 322 320 319 317 320 320 319 319 319 319 323 322 325 323 324 328 328 329 328 327 327 323
322 324 324 322 324 325 325 321 321 323 322 320 319 317 319 317 319 318 318 320 321 325 325 324 323 324 325 327 327 328 326 325
321 322 322 321 322 324 323 322 320 321 321 321 321 320 319 318 319 318 317 317 321 325 326 326 326 325 323 326 327 327 328 326
320 322 323 322 321 323 323 321 321 321 321 320 321 321 322 320 318 318 318 319 322 325 327 326 326 324 322 325 325 324 325 326
319 322 324 323 322 322 323 321 322 322 321 320 321 322 321 321 322 321 318 322 324 325 325 325 325 325 326 325 322 320 323 321
319 321 323 324 324 323 324 323 322 323 323 323 322 322 324 322 323 322 322 322 325 325 326 325 324 322 321 324 322 322 322 324
319 321 324 325 326 324 323 322 322 323 324 323 322 322 325 324 324 326 325 326 325 325 323 323 323 322 322 321 324 324 323 323
320 322 323 324 325 325 323 323 321 322 325 325 325 326 326 325 326 327 329 326 326 326 326 323 322 323 323 322 322 323 323 322
318 321 322 323 324 325 325 324 323 322 323 324 326 327 327 328 328 328 328 328 327 326 326 325 325 324 324 324 324 323 324 324
314 318 320 323 324 325 325 325 325 324 322 323 324 326 326 327 328 328 327 328 327 325 324 325 326 325 325 325 324 324 324 324
313 314 316 319 322 324 325 325 326 326 323 322 323 326 327 326 327 327 327 327 326 327 326 327 326 326 324 325 325 324 324 323
313 313 314 315 316 319 323 324 325 326 324 324 324 325 325 325 326 326 327 326 326 326 325 324 325 323 309 303 313 324 323 322
311 313 314 315 316 317 318 322 325 325 325 324 325 325 324 325 325 324 324 325 326 324 324 324 323 324 304 301 299 320 322 323
312 314 315 317 318 317 317 318 320 324 323 324 324 325 324 325 324 323 324 324 324 323 323 324 323 323 302 300 298 315 319 321

GFSFLT1_sfc_thetae_066.txt.gz
Theta_e
323 322 323 326 327 326 325 325 324 324 324 323 323 322 324 323 323 323 322 323 324 325 324 325 323 324 322 321 319 320 318 316
324 322 324 325 326 325 325 323 322 321 321 320 318 317 319 320 320 320 321 323 323 322 322 323 321 319 319 320 319 316 316 317
322 321 322 324 325 324 323 322 319 320 320 320 320 319 318 318 321 320 322 322 321 321 322 321 322 321 319 319 316 314 315 315
320 320 320 323 324 324 323 322 319 319 321 321 320 319 318 317 319 320 320 320 320 319 322 321 321 322 320 319 320 317 314 314
321 320 319 322 324 324 323 321 319 318 320 319 317 316 314 315 318 320 320 321 320 320 322 322 321 322 322 322 323 320 319 313
320 320 321 322 324 324 323 322 320 319 319 319 318 317 317 317 317 318 319 319 321 322 323 323 324 322 323 322 321 321 321 318
320 323 322 321 323 323 323 322 320 321 319 319 318 317 317 316 315 316 317 317 318 320 322 322 321 322 322 322 322 321 322 320
318 321 321 320 321 322 321 322 320 321 320 318 319 318 318 316 315 315 316 316 315 316 321 321 320 321 322 322 321 320 321 319
317 320 322 321 321 322 321 320 320 321 320 319 319 319 318 318 318 316 317 317 317 317 320 321 321 321 321 321 319 318 319 319
316 320 322 322 321 321 321 320 320 321 321 320 319 319 318 318 319 319 318 318 318 319 321 321 321 322 321 319 318 317 318 319
316 318 322 323 322 322 323 321 320 321 321 320 319 320 321 320 319 318 318 318 318 318 320 321 321 322 322 320 318 317 317 318
317 318 322 324 323 322 322 322 321 321 321 320 319 319 320 321 319 319 319 319 319 318 319 320 321 321 321 319 318 318 317 316
317 320 322 323 323 322 321 321 321 322 322 322 320 319 320 321 321 321 321 320 319 319 320 320 321 321 320 320 319 319 317 316
317 320 321 322 323 324 323 322 321 321 323 322 321 320 320 321 322 322 322 321 321 320 320 320 320 320 319 319 318 317 316 317
313 315 320 322 323 323 324 324 323 322 321 322 322 321 321 320 322 323 322 323 322 321 320 320 320 319 319 319 318 317 317 317
312 312 314 315 320 323 324 325 325 324 322 320 321 323 324 324 323 323 323 323 323 323 322 321 321 321 321 319 318 318 317 317
311 313 314 314 316 316 316 323 325 326 323 322 322 322 323 323 323 324 324 323 323 323 322 321 320 320 309 303 311 319 319 318
310 311 313 315 315 316 315 317 317 324 324 324 324 323 321 322 323 322 322 321 322 321 321 321 320 321 304 302 300 317 319 319
308 310 312 309 308 307 309 312 317 317 320 323 324 324 322 322 322 321 321 321 321 320 321 321 320 320 302 299 297 309 315 316

GFSFLT1_sfc_thetae_069.txt.gz
Theta_e
317 317 321 320 323 322 321 323 323 322 322 323 323 324 322 323 324 325 325 324 325 326 325 324 324 322 320 320 319 315 315 316
317 317 320 319 322 321 322 322 322 321 320 319 319 318 322 321 323 324 323 323 323 324 323 323 321 323 319 319 317 316 313 314
315 316 317 320 320 321 322 321 321 321 320 320 319 319 321 322 322 322 322 323 322 321 323 322 319 322 319 317 314 312 313 313
314 315 316 319 319 320 320 319 320 320 320 320 319 318 318 318 318 319 320 321 320 320 322 321 320 320 318 316 314 312 310 311
314 315 315 318 319 320 320 319 319 319 321 319 317 315 313 316 316 318 318 319 319 318 320 319 319 320 317 316 317 314 314 309
314 314 316 317 320 319 319 318 318 319 320 319 317 315 316 316 317 316 317 318 317 318 318 319 317 318 318 318 318 317 317 314
315 315 317 317 319 318 318 317 317 318 319 319 317 315 314 312 314 316 317 317 317 319 317 320 320 318 319 318 318 318 318 317
314 314 315 316 317 317 317 316 316 318 317 318 317 315 314 312 313 314 315 315 316 317 319 318 318 319 319 319 318 317 317 317
315 315 315 316 317 317 318 316 315 318 317 317 318 318 316 315 314 315 316 316 316 317 318 320 320 317 318 319 319 318 318 318
315 316 316 316 317 317 316 318 317 317 318 318 317 318 317 316 316 315 316 317 317 316 316 319 320 319 317 317 317 317 318 318
313 316 316 317 319 318 317 318 318 318 318 319 318 318 318 318 318 316 315 316 317 317 316 318 319 320 320 318 318 317 316 317
308 316 317 317 318 318 317 317 317 318 318 319 318 318 318 318 318 318 318 316 316 317 316 318 319 319 320 319 319 317 316 315
310 316 317 316 317 318 317 317 317 318 318 318 317 319 319 319 318 318 319 318 318 317 316 316 317 318 318 317 317 318 316 314
310 312 314 316 316 317 318 318 317 318 318 317 316 317 318 318 319 320 319 318 318 318 317 315 316 318 318 318 318 317 317 316
310 310 312 314 315 317 317 318 318 318 319 318 316 316 317 318 319 319 320 320 319 317 317 317 317 317 318 318 318 318 317 317
309 310 310 310 311 312 314 315 318 318 318 318 318 318 318 317 318 319 320 320 319 319 317 316 317 317 318 318 318 317 317 316
309 308 307 305 305 306 308 310 314 317 318 317 319 319 319 318 318 318 318 320 320 320 319 318 317 317 308 302 311 317 316 315
306 303 301 300 299 301 302 309 310 312 311 312 318 319 320 319 319 318 318 318 320 319 319 320 319 318 304 301 299 316 316 315
301 299 297 296 295 296 301 303 302 303 303 304 306 306 308 316 320 320 320 320 319 320 320 320 320 320 303 301 298 309 315 317

GFSFLT1_sfc_thetae_075.txt.gz
Theta_e
313 318 320 320 321 321 320 320 320 322 323 322 322 322 323 326 327 326 324 323 322 320 318 316 316 313 311 312 311 310 312 314
314 318 319 319 320 319 319 318 318 320 321 321 318 319 321 323 325 327 324 322 321 318 318 316 316 311 312 313 312 310 309 311
315 316 318 318 319 319 319 318 318 320 320 320 320 320 321 322 324 324 326 324 321 318 319 316 315 313 313 314 313 311 311 312
314 315 316 318 317 317 318 317 318 319 319 319 318 319 320 319 320 322 323 325 323 319 320 318 317 315 316 316 314 314 310 310
314 315 315 317 317 318 319 320 317 318 319 317 317 316 316 318 320 321 322 324 324 321 320 321 320 318 317 317 315 314 313 311
311 314 315 318 319 319 320 319 319 318 317 317 317 315 316 318 319 319 320 320 321 322 322 319 319 320 318 318 314 312 312 313
312 315 316 317 319 318 317 316 316 318 316 315 315 315 315 313 317 317 318 319 318 319 321 320 319 319 318 317 317 315 312 313
311 312 314 317 317 317 316 316 314 316 316 314 313 314 315 315 316 317 316 317 318 317 319 319 319 319 319 318 316 316 315 314
311 312 314 315 317 316 316 315 315 316 317 316 314 314 316 316 316 316 317 317 318 319 317 318 319 319 319 319 318 317 317 315
310 312 314 315 316 316 316 315 314 316 316 317 315 314 314 314 314 315 316 317 318 317 316 317 318 318 318 318 317 316 317 317
309 312 314 316 316 317 317 317 314 315 315 316 316 315 314 312 311 311 314 315 316 315 316 317 316 318 318 317 317 317 317 317
310 311 313 315 315 316 316 315 314 314 314 316 316 314 315 316 313 312 312 313 313 314 316 317 317 317 318 317 316 317 316 316
311 312 313 313 313 315 315 315 315 315 314 316 315 315 317 317 316 314 312 313 313 314 314 315 316 318 318 317 316 317 315 315
306 307 307 309 312 314 314 315 315 316 317 316 315 313 314 314 316 317 316 314 313 314 314 314 314 314 316 316 317 317 316 316
300 300 302 304 308 310 310 311 314 316 316 316 315 313 314 314 314 315 316 317 316 315 315 315 315 314 314 315 316 316 316 316
298 297 297 299 302 303 304 306 305 308 315 315 314 314 314 314 314 315 316 316 317 317 316 316 315 315 315 314 314 314 313 313
293 294 294 294 295 296 298 298 300 302 302 302 303 305 309 315 315 315 315 316 316 316 315 316 316 316 305 301 308 314 314 314
290 290 290 291 293 294 293 294 296 296 297 297 298 299 300 301 304 307 313 315 317 317 317 316 316 316 302 300 299 313 314 314
288 288 288 288 291 292 292 291 290 291 291 292 293 294 296 297 298 299 299 301 305 314 316 317 317 316 290 293 297 310 314 314

GFSFLT1_sfc_thetae_078.txt.gz
Theta_e
316 317 319 319 319 319 322 323 320 318 320 321 323 323 324 325 326 324 324 325 327 327 323 319 319 317 314 313 311 310 314 314
312 318 318 317 317 319 320 321 321 320 318 318 319 319 321 323 326 327 325 325 327 324 320 317 317 314 314 313 311 310 310 313
311 316 317 317 320 320 319 320 319 320 321 320 320 320 321 322 324 323 322 321 321 320 318 317 315 313 313 313 312 309 310 314
311 314 316 317 319 319 319 319 318 318 320 319 318 319 320 320 322 323 322 321 320 319 318 317 313 313 313 314 312 311 310 312
312 313 314 317 318 320 319 317 317 319 319 318 317 315 315 318 320 322 323 322 320 319 319 316 314 313 313 315 314 313 313 311
312 314 315 317 318 317 317 316 317 318 318 318 312 314 315 318 319 320 321 322 320 319 320 317 316 315 316 316 314 313 313 313
312 314 315 318 318 317 317 318 318 317 317 317 312 314 315 315 315 318 318 319 321 319 320 320 320 318 317 317 315 314 313 313
309 311 314 316 316 318 318 317 316 316 315 316 315 312 313 312 316 317 318 317 317 320 319 319 320 319 317 317 316 315 313 312
309 312 314 315 317 317 316 315 315 315 315 315 313 312 312 312 315 317 318 318 318 318 320 319 319 319 319 318 317 316 316 315
308 311 314 315 316 316 316 315 315 316 316 315 314 311 312 315 315 316 317 317 318 318 318 319 319 318 318 319 319 318 317 316
309 312 313 316 317 316 317 316 314 315 316 316 315 315 313 313 311 313 316 317 317 314 315 318 318 318 319 319 318 318 317 317
309 311 313 316 316 316 315 315 314 315 315 316 316 315 314 311 312 312 311 315 316 316 316 316 317 317 317 317 318 317 316 316
311 312 313 314 314 315 315 314 315 315 315 315 316 316 315 312 313 312 313 312 314 315 315 316 316 316 317 317 316 317 315 315
303 307 311 313 313 314 314 315 314 315 315 315 314 314 315 312 313 314 312 312 312 313 314 313 313 316 316 316 316 316 315 315
298 298 301 303 306 307 308 308 313 316 315 315 314 314 314 312 312 313 313 313 312 313 313 314 314 313 315 316 316 316 316 316
294 295 296 298 299 300 302 303 305 307 314 310 307 312 315 314 314 313 313 314 314 313 313 314 315 315 315 314 314 314 315 315
290 291 292 293 294 295 295 296 297 299 299 300 301 303 304 304 307 313 315 315 316 316 316 315 314 314 304 300 308 314 314 313
288 288 289 290 290 291 290 291 293 293 294 294 295 297 297 299 301 301 301 302 304 310 313 316 316 314 289 291 295 312 314 314
287 287 288 289 289 289 288 288 288 288 289 290 291 292 292 294 294 294 295 297 294 292 291 292 295 291 288 289 289 297 310 314

GFSFLT1_sfc_thetae_081.txt.gz
Theta_e
311 320 325 327 328 329 327 327 329 326 325 325 325 326 327 327 325 326 327 328 327 329 327 324 325 322 321 321 321 323 322 322
309 317 324 325 327 326 324 325 324 322 321 321 322 321 324 326 327 328 327 326 327 325 325 322 323 321 320 321 321 321 320 323
308 316 322 324 324 325 322 323 323 322 323 322 322 323 324 325 328 327 327 325 326 326 321 322 321 320 322 320 320 320 320 321
307 315 320 323 324 323 322 322 323 322 324 325 322 322 323 322 323 322 321 324 325 323 321 320 319 321 319 319 320 321 317 320
306 313 318 321 324 325 322 322 322 322 326 324 320 318 318 321 323 323 321 321 320 320 319 318 317 320 319 318 318 320 321 317
306 313 318 322 325 323 321 320 321 322 325 324 321 319 320 322 322 322 322 320 321 319 318 315 316 318 319 318 317 318 321 320
310 316 319 321 324 321 319 318 319 320 322 322 320 321 319 318 320 320 320 321 320 320 318 317 316 317 317 319 318 318 318 320
313 316 317 319 320 317 317 318 317 318 319 319 319 322 320 319 319 320 319 319 319 318 319 317 317 317 319 320 320 319 319 320
310 316 317 319 319 317 320 321 319 317 318 318 318 321 321 320 321 321 321 321 322 321 320 319 318 318 318 318 318 319 321 320
312 314 318 319 318 319 321 319 317 316 317 317 317 320 321 320 320 321 321 321 320 320 320 319 318 317 317 316 317 317 317 317
311 314 317 318 318 318 318 318 316 317 317 317 317 318 320 320 319 319 319 320 322 320 319 319 318 318 317 316 315 317 317 317
313 315 317 318 318 317 316 316 316 316 316 317 317 316 317 318 318 320 320 319 319 320 319 320 318 318 317 317 318 317 316 317
308 314 315 315 315 315 315 316 316 316 317 317 317 317 316 315 317 318 318 319 320 319 318 319 320 319 319 318 316 318 316 316
300 301 309 313 314 314 315 316 315 316 316 317 317 317 316 315 318 319 317 317 320 321 319 318 318 320 318 318 318 318 317 317
295 296 298 300 303 305 308 310 315 316 316 316 315 316 317 316 318 320 319 319 318 318 318 318 319 320 320 319 318 318 318 318
291 292 293 295 296 298 301 302 305 310 307 306 305 307 314 316 316 319 319 319 317 317 317 319 319 318 317 317 318 317 317 317
289 289 289 290 291 293 294 295 296 299 298 298 299 300 301 303 305 304 308 308 307 315 315 315 314 307 290 291 299 318 317 317
287 287 288 288 288 289 289 290 292 292 293 293 295 296 296 297 298 299 299 297 297 296 295 299 292 291 289 290 290 303 310 315
286 287 287 287 288 287 287 288 288 289 288 289 291 293 293 294 293 294 293 291 290 289 289 290 289 288 288 289 289 298 303 292

GFSFLT1_sfc_thetae_084.txt.gz
Theta_e
315 317 323 328 333 336 337 336 338 335 329 330 331 331 330 328 327 328 329 329 330 332 331 331 329 328 325 326 327 329 329 326
315 317 322 329 332 335 336 333 336 331 328 328 327 328 328 328 329 329 330 329 328 328 328 328 326 324 323 324 328 327 325 327
313 316 321 328 330 334 334 332 332 332 331 330 328 327 328 329 330 332 333 331 331 328 326 325 325 323 321 322 326 324 325 326
312 313 318 327 329 333 331 331 333 330 332 329 329 328 327 326 328 330 329 328 327 326 326 324 324 322 319 320 326 326 322 325
312 313 316 324 328 333 331 331 332 329 330 328 327 324 321 325 326 326 328 326 326 325 325 324 323 322 320 321 325 326 325 322
313 314 315 323 328 332 330 328 329 329 327 330 326 325 324 327 326 325 323 322 322 322 322 322 321 322 321 321 325 327 327 325
315 316 317 322 328 331 327 325 325 327 328 329 327 325 325 324 324 321 321 321 321 319 318 319 320 319 320 321 327 326 325 325
317 316 318 322 326 326 322 322 322 325 330 328 325 325 325 323 322 320 320 319 319 319 318 317 317 319 319 320 322 323 324 324
318 317 320 322 326 320 320 321 322 323 328 326 323 325 324 322 323 323 322 321 320 320 318 319 318 318 319 321 320 321 323 325
318 317 321 323 324 318 320 321 321 322 325 321 321 324 323 321 323 325 325 326 325 321 321 318 318 317 318 319 318 318 320 322
313 317 320 323 322 320 323 326 320 322 321 321 320 323 324 323 324 324 324 325 323 323 321 320 317 318 317 318 316 318 318 319
305 317 319 321 320 321 321 322 319 320 322 321 320 321 322 322 322 322 323 324 323 323 321 319 317 316 316 315 314 315 316 317
301 305 317 317 318 317 318 319 318 320 321 320 320 323 322 320 320 323 325 324 324 323 323 319 318 317 316 314 312 313 314 314
296 298 302 310 315 316 317 318 318 319 318 318 319 320 319 318 318 323 322 321 322 322 321 321 320 319 319 316 315 316 316 317
293 294 295 298 301 304 311 316 317 318 318 318 317 317 318 317 318 321 319 319 319 320 320 319 319 321 320 318 317 316 316 318
289 290 291 293 295 297 299 303 307 311 309 307 307 307 311 315 317 319 321 321 320 321 321 320 320 320 301 301 320 320 320 320
288 288 288 288 290 291 293 295 298 300 300 299 301 301 302 302 303 304 304 304 301 302 302 304 296 295 289 290 296 316 319 319
286 287 286 286 287 289 289 291 293 294 293 295 296 297 297 297 297 296 294 294 294 294 294 293 290 289 289 290 290 301 306 296
286 286 286 286 287 287 288 289 289 290 290 291 293 294 293 293 293 292 290 290 289 289 289 289 288 288 288 290 290 294 289 288

GFSFLT1_sfc_thetae_087.txt.gz
Theta_e
316 316 318 320 324 330 336 342 340 341 341 338 336 333 334 334 334 334 336 334 333 332 331 331 330 331 331 330 326 326 327 326
316 317 318 321 327 332 336 340 339 340 335 331 331 328 331 331 332 333 333 333 332 331 330 330 329 330 328 328 326 324 323 325
314 316 317 322 328 333 336 338 338 338 334 334 333 332 330 333 333 331 331 329 330 329 329 328 327 327 326 325 325 322 323 326
314 315 316 322 327 332 335 337 338 337 336 334 333 331 330 329 328 329 334 333 334 332 331 328 325 327 324 324 324 323 319 324
314 315 315 319 327 332 335 336 337 336 336 333 330 327 324 327 328 330 331 332 331 332 331 328 326 324 323 323 325 324 323 322
313 314 316 317 326 330 335 335 335 335 334 333 330 328 327 328 328 328 328 328 327 328 326 326 324 324 323 323 322 323 324 325
316 317 318 316 322 331 335 333 333 332 333 332 331 328 326 325 327 326 325 326 323 321 321 324 323 322 321 322 322 322 324 325
320 319 318 318 322 329 333 331 330 330 332 332 330 329 327 325 326 325 322 321 320 318 318 318 320 321 321 322 322 323 325 324
316 321 321 320 322 329 328 326 326 327 331 331 330 328 326 325 327 324 324 322 322 320 318 317 319 320 320 321 322 323 324 325
312 316 321 323 325 326 324 323 324 326 331 330 328 327 325 324 327 327 325 325 323 322 320 318 317 319 319 319 319 319 321 325
306 311 316 324 325 323 322 323 324 326 330 328 325 325 325 326 327 326 326 327 325 324 320 320 318 317 318 319 318 319 319 320
300 302 306 321 322 321 320 323 323 324 327 325 325 324 324 325 324 325 325 326 325 325 323 319 318 317 317 317 316 316 315 316
297 297 300 315 320 320 321 321 321 322 324 322 323 323 324 323 322 323 325 324 324 323 324 321 318 317 316 315 315 315 314 315
294 294 294 298 306 318 318 319 320 321 322 321 322 321 320 320 321 322 324 323 323 324 323 321 319 317 316 315 315 315 314 314
291 291 291 293 296 300 303 316 320 320 319 319 318 319 319 320 320 322 322 322 321 321 322 322 320 319 318 317 315 313 312 314
289 288 288 289 291 294 297 299 306 312 309 309 308 310 316 316 314 311 317 315 316 316 320 320 315 301 295 299 311 316 316 315
287 287 287 287 288 290 292 294 297 301 301 300 301 302 303 302 301 300 300 299 299 299 298 297 296 294 289 291 295 311 310 309
286 285 285 286 287 289 288 290 293 294 295 296 296 296 296 295 295 293 293 292 292 291 291 291 290 290 290 291 292 300 295 293
286 286 285 286 286 288 288 290 289 290 290 292 293 292 292 291 290 289 288 289 288 288 288 288 288 289 290 289 288 289 287 287

GFSFLT1_sfc_thetae_090.txt.gz
Theta_e
313 315 316 315 315 321 341 341 341 341 341 340 338 335 334 335 333 334 335 335 334 333 332 331 331 329 328 327 326 326 325 325
313 316 317 316 316 320 340 339 339 339 338 334 332 330 330 330 331 333 333 334 332 332 330 330 330 328 327 327 326 323 323 325
312 314 317 317 318 324 338 339 338 338 338 334 333 331 330 329 329 329 331 333 331 330 329 328 328 327 327 326 324 321 322 324
311 313 315 318 322 331 336 338 337 337 337 333 332 330 329 328 328 328 329 330 330 330 328 328 327 327 326 326 324 321 319 322
310 312 314 316 323 331 334 338 335 337 335 332 329 326 323 326 326 327 329 331 329 329 328 328 327 326 325 325 326 323 321 318
310 310 315 315 323 329 332 336 335 335 333 333 330 326 326 326 327 327 328 328 329 328 329 328 327 325 324 325 324 323 322 320
317 319 316 314 322 328 331 334 333 335 333 333 329 327 325 324 324 325 325 324 323 322 324 325 325 325 323 324 325 324 322 321
314 316 319 319 319 327 331 332 331 333 332 331 330 329 327 325 325 324 323 320 320 319 319 321 323 324 323 323 323 323 322 320
312 315 317 315 322 329 331 330 329 331 331 330 330 328 326 325 326 324 323 321 320 320 318 319 320 321 321 322 322 322 321 320
308 311 312 313 323 329 330 328 329 328 329 330 328 327 325 324 326 325 324 322 321 320 319 318 318 319 320 321 320 319 320 321
304 305 306 315 325 326 326 327 326 325 329 329 326 325 325 325 325 323 324 324 322 320 319 318 318 318 319 319 319 320 320 321
299 300 300 303 315 323 323 323 324 324 327 326 324 325 323 324 324 325 325 325 324 322 320 318 317 317 318 317 317 317 317 317
296 296 296 297 299 305 321 322 322 323 323 323 323 322 323 323 323 324 324 323 324 322 321 319 317 316 317 316 315 315 314 314
294 292 292 293 294 297 301 320 320 320 321 321 320 320 321 320 321 321 322 322 322 322 322 319 317 316 315 315 314 313 312 312
291 289 289 290 292 294 296 301 318 319 319 319 320 319 319 319 319 322 321 321 320 321 321 320 318 316 315 315 314 314 314 314
288 287 287 288 290 290 292 295 301 309 309 308 308 309 311 310 307 310 309 308 305 305 303 301 299 297 294 299 313 313 311 311
286 286 286 286 287 288 290 291 294 299 300 300 300 301 300 299 298 298 298 297 296 296 294 294 294 295 291 292 299 304 304 304
284 285 285 285 286 287 287 289 291 293 294 295 295 294 293 293 293 292 292 291 291 290 291 291 290 290 290 291 292 293 291 291
284 284 285 285 286 286 287 288 288 288 289 291 291 291 290 289 289 288 288 288 288 287 287 288 288 288 288 288 288 287 286 286

GFSFLT1_sfc_thetae_093.txt.gz
Theta_e
305 306 308 309 310 308 336 337 337 337 336 334 332 331 329 329 330 329 330 332 330 329 328 328 329 328 327 325 324 325 324 325
305 306 308 310 311 309 335 335 336 336 334 333 330 329 329 327 329 331 331 330 328 327 327 326 328 327 325 325 325 323 323 325
305 306 308 309 310 312 334 335 336 336 335 334 331 328 324 325 328 330 330 328 327 327 327 328 327 325 324 326 325 322 322 325
304 306 308 309 309 318 334 335 335 335 333 329 327 325 324 321 322 324 329 331 328 327 328 328 328 327 326 325 325 322 319 322
306 305 307 307 310 330 334 335 334 333 332 330 325 324 321 321 322 324 327 329 329 328 328 327 327 326 325 326 325 322 321 318
311 313 315 311 316 333 334 333 333 333 330 328 325 322 320 322 321 322 324 325 327 327 327 324 326 326 326 326 324 322 322 319
311 314 315 315 316 328 333 331 332 331 329 328 325 322 320 321 319 320 322 325 326 325 327 326 325 325 325 325 326 323 321 321
308 308 309 311 312 314 329 330 329 330 328 327 327 325 321 320 319 320 319 319 318 319 320 321 323 325 325 325 325 324 322 321
303 305 305 306 314 317 324 328 328 327 327 326 327 326 321 321 321 320 317 317 319 319 318 319 320 320 323 324 324 324 323 321
300 301 302 302 306 320 322 324 326 326 325 326 326 325 321 321 320 321 319 319 318 317 317 318 318 320 322 322 322 322 323 321
297 297 298 299 303 310 321 323 322 326 326 326 326 323 322 321 321 319 319 321 320 319 317 317 318 318 319 320 319 321 321 321
294 294 295 296 298 302 307 320 322 322 324 325 323 321 323 321 320 320 319 321 318 318 317 317 317 317 318 317 318 319 318 319
292 291 292 292 294 296 299 303 318 319 323 322 322 321 321 321 322 323 323 321 321 319 318 316 316 317 317 316 316 317 318 318
289 289 289 290 291 293 295 298 305 320 321 320 320 320 320 320 321 321 321 322 322 320 318 317 315 316 315 315 314 314 314 314
287 287 288 289 290 290 292 295 300 317 319 318 318 318 318 317 319 319 319 317 319 319 318 317 315 315 315 315 314 313 313 313
286 285 286 287 288 289 290 292 296 301 307 307 307 308 308 307 306 305 304 303 303 304 302 301 300 299 297 305 314 313 312 312
284 285 285 285 286 287 289 291 295 294 296 297 300 300 299 298 297 297 296 295 295 295 295 295 294 294 292 294 303 302 302 305
283 284 284 285 285 287 287 288 290 291 290 291 292 293 293 292 292 292 291 290 291 290 290 290 289 289 290 291 291 292 291 290
283 283 284 285 285 286 287 288 288 287 287 288 289 289 289 289 289 288 288 288 287 287 288 288 288 288 288 288 287 287 287 287

GFSFLT1_sfc_thetae_096.txt.gz
Theta_e
301 303 303 304 306 307 334 338 337 337 335 334 333 333 332 332 331 330 329 330 330 329 326 327 329 327 326 326 325 324 324 324
300 302 303 304 304 305 332 336 336 335 333 330 329 329 329 329 329 329 328 330 329 327 326 326 327 326 325 324 323 322 322 324
302 300 301 303 305 306 325 334 335 335 335 334 331 330 329 329 328 329 328 328 329 329 326 326 326 326 325 325 323 322 322 324
302 303 301 302 304 307 325 333 334 335 336 333 329 324 322 322 325 328 329 329 328 327 326 325 325 325 323 324 323 322 320 322
310 310 311 311 309 307 322 332 334 335 334 330 327 327 324 323 325 322 327 330 328 325 324 325 326 326 325 324 325 322 322 319
308 309 310 312 313 315 329 333 334 334 331 331 328 325 322 322 321 321 321 326 328 327 326 326 325 325 325 325 324 322 323 321
305 306 307 308 309 314 326 332 333 332 331 328 327 322 321 321 320 320 321 320 324 325 323 326 325 325 322 325 325 322 321 321
301 300 301 303 304 308 317 329 329 330 330 327 326 322 322 321 320 320 320 322 323 324 324 325 325 324 322 325 325 323 321 320
297 299 299 300 302 306 315 327 329 328 327 325 324 323 322 322 321 321 321 322 322 320 320 321 321 322 324 324 324 324 323 321
294 296 296 297 299 302 310 324 326 327 326 324 323 323 320 320 320 321 318 317 316 315 317 317 318 319 320 321 323 323 323 322
292 293 294 296 298 299 304 314 323 324 323 324 324 322 322 322 320 318 318 317 317 315 316 316 316 318 319 320 321 322 322 322
290 291 292 293 295 297 299 302 314 318 319 323 322 321 322 322 320 318 318 318 319 317 317 316 316 316 318 318 319 319 319 320
287 289 290 291 291 293 296 297 303 312 318 322 321 321 321 321 320 319 318 318 319 318 317 316 316 316 317 316 316 317 317 317
286 286 287 288 290 291 292 294 298 304 319 319 319 320 320 320 320 320 321 320 319 318 317 315 315 316 316 315 315 314 317 318
286 285 286 287 288 289 291 292 296 301 318 317 317 317 317 316 315 314 314 319 319 318 317 316 315 315 315 315 314 314 313 314
284 284 284 285 286 287 289 291 294 297 300 305 308 308 308 307 305 304 303 303 302 304 303 302 301 300 299 307 313 312 312 312
283 283 284 284 285 286 288 289 291 293 294 294 298 298 298 298 297 296 296 295 295 294 293 293 293 293 291 294 304 306 307 304
282 282 283 284 284 286 286 287 289 290 290 291 292 292 291 291 292 291 290 290 290 290 289 289 288 289 289 290 291 294 293 293
282 282 283 284 285 285 286 286 287 287 287 287 288 288 287 287 287 286 287 287 287 287 287 287 287 287 287 288 288 288 288 287

GFSFLT1_sfc_thetae_099.txt.gz
Theta_e
299 300 300 301 300 302 323 336 337 337 337 334 333 334 334 334 333 333 332 332 331 329 328 329 329 329 328 328 326 325 324 324
299 299 300 300 300 300 320 331 335 335 334 332 331 331 333 333 334 332 332 331 329 328 326 327 329 327 326 327 326 323 322 324
299 300 298 298 301 301 312 328 334 335 335 334 332 332 333 333 332 331 331 329 329 328 326 327 327 325 325 325 324 322 323 324
308 309 306 306 302 300 309 326 333 335 335 334 326 325 326 325 327 328 328 329 329 330 328 327 326 326 324 324 324 323 320 323
304 304 305 307 308 311 307 324 332 334 335 332 328 327 326 327 329 329 326 327 327 328 327 327 326 326 324 324 324 323 322 318
302 302 303 304 305 308 313 318 331 333 334 332 329 327 326 326 327 322 326 325 326 326 327 326 326 325 325 324 323 322 321 319
300 302 302 304 304 305 308 319 329 332 333 332 329 327 323 321 323 321 322 324 325 326 326 326 326 325 324 323 324 323 322 320
297 297 297 299 300 301 305 313 328 331 332 331 328 326 323 321 321 322 320 319 318 324 324 324 324 323 323 323 323 322 322 321
294 295 295 296 298 300 300 307 327 330 330 328 326 322 323 322 321 322 321 320 320 320 322 321 323 323 321 321 323 323 323 321
291 292 293 294 295 298 299 305 326 327 328 324 322 322 322 321 321 321 321 321 322 323 322 322 321 321 321 322 322 322 323 322
289 290 291 292 294 297 300 302 308 323 324 325 323 322 322 321 321 320 319 318 318 317 316 314 315 314 315 318 318 320 321 322
287 288 290 291 292 295 297 298 303 308 319 323 322 321 320 320 320 318 318 317 316 314 313 312 314 312 316 316 317 318 319 319
287 287 288 288 289 291 294 295 299 303 309 319 319 321 320 320 319 319 318 317 317 317 315 314 315 315 315 315 316 317 317 317
285 285 286 286 287 289 291 294 296 298 305 318 319 320 320 319 319 319 319 317 315 317 316 315 315 315 315 315 315 316 315 317
284 284 284 286 287 287 289 291 294 295 299 315 318 319 319 318 319 319 319 316 317 317 317 315 314 314 315 315 315 313 313 313
283 283 283 284 285 286 288 289 292 292 294 296 300 308 309 310 308 307 306 306 307 307 304 301 300 298 296 298 312 312 312 305
282 283 283 283 284 285 286 287 289 290 290 289 293 296 299 297 297 297 297 296 295 295 293 293 292 291 290 292 301 307 304 301
281 282 283 283 283 285 284 285 287 288 287 288 287 288 290 290 290 290 290 290 291 289 289 289 288 288 289 290 291 293 292 293
281 282 282 283 283 284 284 285 284 285 285 286 287 286 285 286 286 286 286 287 287 287 287 287 286 287 288 288 288 288 287 287

GFSFLT1_sfc_thetae_102.txt.gz
Theta_e
297 297 297 297 297 298 302 315 334 336 337 335 333 332 333 333 333 332 332 332 331 331 332 330 330 328 327 327 326 326 325 324
297 306 308 302 296 297 299 305 328 335 336 333 332 331 332 333 333 332 331 332 331 331 330 329 329 328 328 328 327 325 324 324
307 306 306 306 307 306 301 305 321 334 335 335 335 333 334 334 333 332 331 331 331 330 329 328 328 328 327 327 325 323 324 324
303 304 303 304 304 304 307 309 316 332 334 335 328 331 328 330 331 331 331 331 331 330 328 328 328 328 325 325 325 323 321 323
300 300 301 301 303 304 305 308 311 328 333 332 330 328 326 328 330 331 332 332 330 330 328 328 328 327 325 324 325 324 323 320
296 297 298 300 301 303 304 305 309 318 332 332 330 327 328 327 330 329 329 329 329 329 327 326 327 326 325 325 324 323 324 322
294 296 296 297 298 299 302 304 306 313 331 331 329 327 326 325 327 326 327 327 326 325 325 325 325 326 324 324 324 323 322 322
291 291 292 294 295 296 299 301 303 308 328 331 330 327 326 325 326 326 325 325 324 324 324 324 325 326 325 324 323 322 322 320
290 291 291 292 293 295 296 299 301 306 327 331 332 329 324 324 325 325 324 324 324 324 324 325 325 324 323 323 321 321 322 321
289 289 290 290 291 292 295 297 300 307 330 329 327 324 322 321 322 323 322 322 320 321 321 322 322 322 321 322 321 321 321 321
287 288 288 290 290 292 294 297 299 304 313 326 324 324 323 321 321 320 321 320 320 320 318 318 318 319 321 321 320 321 321 322
286 286 288 289 290 290 291 295 298 302 305 317 322 321 321 321 320 320 320 320 320 319 319 318 317 316 316 315 315 315 316 318
285 286 286 287 287 288 289 292 295 297 302 310 320 320 320 319 319 319 319 318 318 317 316 315 315 315 315 315 312 316 316 316
284 284 285 285 286 287 288 290 293 295 298 308 317 318 319 318 319 318 319 318 317 317 316 315 315 315 315 314 314 315 316 316
283 283 284 284 285 286 287 288 291 294 294 294 297 306 318 317 319 318 318 318 316 315 316 315 315 314 314 315 315 314 313 310
282 282 283 283 284 285 286 287 289 291 291 291 290 293 298 306 310 315 315 313 312 309 305 302 301 300 297 300 309 313 309 302
281 282 282 282 282 283 284 285 286 289 289 289 290 288 290 291 295 297 297 295 295 295 293 293 292 292 290 293 300 303 301 298
281 281 281 282 282 283 282 283 285 285 286 287 288 288 286 286 288 290 289 289 289 288 288 288 288 289 290 292 292 293 292 291
280 281 281 281 282 281 282 283 283 283 283 285 286 287 286 285 285 285 285 286 285 286 286 286 287 288 288 289 289 289 287 287

GFSFLT1_sfc_thetae_105.txt.gz
Theta_e
308 313 314 314 316 314 308 309 316 337 340 340 339 337 338 336 335 335 336 335 336 336 336 336 334 332 331 331 329 330 330 330
311 311 312 312 313 314 315 315 311 320 334 336 333 330 333 333 334 337 336 335 334 335 336 335 333 332 330 330 329 327 326 328
308 309 309 309 309 311 312 314 316 316 327 335 336 334 334 335 335 335 336 336 335 335 335 333 331 330 330 330 328 326 326 326
303 304 305 306 306 307 308 311 313 317 321 334 338 334 334 332 333 332 333 337 336 335 334 333 330 330 329 330 330 328 322 325
300 300 301 302 303 304 305 307 310 314 319 327 332 328 327 331 333 333 333 334 334 335 334 333 331 331 331 330 331 329 326 321
297 297 298 300 301 301 303 303 306 311 314 321 331 331 332 335 335 336 334 333 334 334 333 333 333 332 331 330 329 328 327 324
296 297 297 298 299 299 298 299 302 306 311 316 327 331 332 331 333 333 332 330 331 332 332 332 332 330 331 332 328 328 326 325
294 293 294 295 295 295 296 297 298 302 307 314 323 330 330 332 332 333 330 328 328 329 330 331 331 330 331 331 327 327 326 324
292 292 292 293 292 292 293 294 296 301 304 310 324 330 330 332 333 333 331 327 328 330 329 331 331 329 329 331 330 329 325 324
289 291 291 291 290 291 292 293 295 299 304 308 329 330 329 328 332 334 331 329 328 328 329 329 329 327 328 328 325 326 328 324
289 289 289 290 289 290 291 292 294 297 301 306 322 329 328 327 328 330 329 329 328 326 326 327 326 327 327 325 325 326 322 322
288 287 288 288 288 289 289 291 292 295 298 303 310 324 325 324 324 325 325 325 325 325 325 324 324 325 326 325 325 321 321 321
286 286 286 286 286 287 288 289 291 294 296 301 315 322 322 322 322 322 323 323 324 323 323 321 322 322 322 321 318 318 318 320
285 285 285 285 285 285 286 288 289 292 295 296 301 303 316 321 321 320 321 320 320 321 320 319 319 318 317 317 318 319 321 321
284 284 284 284 284 284 285 286 288 291 293 293 292 294 297 304 320 320 320 319 319 319 320 318 317 317 317 317 317 318 318 315
282 282 283 283 283 283 284 285 286 288 290 291 290 291 291 293 296 303 318 319 316 317 312 306 305 305 301 312 317 317 309 303
281 282 282 282 282 281 282 283 284 286 287 288 290 290 289 288 289 291 293 294 295 295 294 293 293 293 290 292 302 306 303 300
280 281 281 282 281 282 281 282 283 283 284 285 287 288 288 287 286 286 286 287 288 288 289 289 288 289 289 291 292 296 294 293
280 281 281 281 281 281 282 282 281 281 281 282 283 285 286 287 286 284 284 285 285 285 286 287 287 288 288 288 288 289 288 288

GFSFLT1_sfc_thetae_108.txt.gz
Theta_e
314 316 318 320 321 322 324 324 324 319 326 337 339 342 343 344 343 342 342 341 341 340 340 341 339 337 339 339 337 337 336 335
315 316 317 318 319 319 320 322 324 325 317 326 332 335 338 339 343 343 342 341 340 339 339 339 336 335 336 337 337 333 333 334
312 313 314 315 315 316 316 318 320 322 323 320 330 334 335 337 340 342 341 339 339 338 338 336 336 336 335 335 333 329 331 334
309 309 310 312 312 312 313 314 316 318 322 324 324 332 335 334 335 337 338 340 339 338 338 337 336 337 334 334 332 330 326 328
306 306 307 308 309 311 311 312 313 314 318 320 323 324 328 332 334 335 335 337 340 338 338 338 338 337 335 336 333 334 332 325
304 304 305 306 308 308 309 309 310 311 312 313 316 322 330 333 333 334 334 334 337 338 339 338 337 336 335 335 333 334 335 331
303 304 304 304 305 305 305 305 305 307 307 309 311 315 324 331 333 333 332 333 333 335 337 338 338 335 333 334 337 337 334 334
301 299 300 301 301 301 301 299 299 302 301 304 308 310 320 326 333 333 332 332 331 332 334 335 335 335 337 336 337 336 335 333
299 298 299 298 299 298 296 294 294 296 297 300 304 307 313 326 331 330 333 333 330 332 333 334 334 336 335 336 335 334 335 334
297 297 297 296 296 296 292 291 292 294 296 299 302 305 311 328 335 331 331 335 333 332 332 331 333 332 331 333 333 333 332 332
296 296 295 293 293 292 291 290 290 292 295 298 301 304 312 331 335 332 331 336 334 333 332 330 330 329 329 331 332 331 329 331
294 294 294 293 292 291 289 288 288 290 293 296 300 308 328 331 331 333 332 333 332 331 330 327 328 328 328 327 328 329 328 328
293 293 292 291 290 289 287 286 286 289 292 296 299 305 314 324 327 330 330 329 328 327 327 326 326 326 327 327 327 327 326 326
292 291 290 287 287 285 285 285 286 288 291 294 295 298 300 305 322 324 325 325 324 324 324 324 324 325 325 327 326 325 325 325
288 289 288 286 285 284 284 284 286 287 289 290 292 293 296 298 301 310 321 321 321 322 323 323 323 323 324 324 322 321 321 321
285 286 287 285 284 283 283 283 284 286 286 286 288 292 292 291 293 294 297 305 316 319 318 318 315 316 312 322 321 321 317 312
284 285 285 284 284 283 282 283 283 284 284 284 285 288 289 289 289 290 290 291 293 295 296 298 297 295 292 294 312 315 308 304
283 283 284 284 283 284 283 283 283 283 282 284 284 286 286 287 287 286 286 286 288 288 289 289 290 290 291 292 293 297 295 294
282 283 283 283 284 283 284 284 283 282 282 282 283 284 284 285 285 284 284 284 284 285 285 286 286 287 288 288 288 288 287 287

GFSFLT1_sfc_thetae_111.txt.gz
Theta_e
314 317 319 320 321 323 323 324 326 329 327 326 334 337 342 345 346 346 349 346 348 349 346 345 344 342 342 342 342 341 340 338
315 318 319 320 321 321 321 321 323 325 325 323 321 331 336 340 343 348 350 347 346 347 345 343 343 339 341 339 340 336 336 339
313 314 316 317 317 318 317 318 320 321 322 324 325 325 330 334 340 343 347 349 347 345 345 342 343 338 337 336 336 333 335 338
310 310 312 314 314 314 314 315 317 318 320 321 324 326 327 331 335 336 341 346 348 345 341 343 344 338 335 336 335 333 330 333
309 309 310 311 312 313 313 313 314 314 317 317 318 319 321 324 333 334 338 343 344 344 344 339 344 339 337 335 335 335 334 326
308 308 308 309 310 310 311 311 311 311 312 314 314 315 318 324 328 335 338 340 342 338 339 340 342 341 340 338 334 335 335 332
307 307 307 307 308 308 308 307 306 308 307 308 307 308 311 316 322 327 336 337 340 337 337 336 340 340 336 339 339 336 336 334
305 304 304 304 304 305 305 304 302 303 303 303 303 304 307 309 315 324 329 334 337 337 333 335 335 336 337 340 338 332 337 335
303 303 303 302 302 302 301 300 298 299 299 299 299 299 303 306 313 319 327 334 336 339 333 334 336 336 337 338 338 334 334 335
301 302 302 301 300 300 298 296 295 296 296 296 296 298 300 303 308 316 324 333 336 338 335 333 333 334 334 336 336 337 335 333
300 300 300 299 299 298 297 295 293 293 294 292 294 296 299 302 305 310 322 334 336 337 337 333 332 332 332 334 334 335 336 333
298 298 298 298 296 295 294 291 291 290 290 290 292 296 300 304 312 316 327 333 334 334 333 332 331 331 331 331 332 332 330 329
297 297 296 295 292 292 290 289 288 287 288 289 292 296 298 302 307 323 328 331 333 333 333 330 329 329 329 329 330 332 329 327
295 295 294 292 291 290 288 287 286 286 285 288 290 293 294 295 300 306 309 327 330 329 330 329 328 327 327 329 331 330 327 327
292 292 292 290 290 288 287 286 285 285 286 287 287 288 291 292 295 297 301 305 321 324 325 325 325 325 325 327 328 329 327 326
289 288 288 289 287 286 287 285 284 285 284 285 284 287 288 290 291 292 293 295 296 300 310 311 317 320 319 324 326 326 321 317
286 286 286 285 285 285 286 286 284 285 284 284 285 285 286 287 288 288 288 289 289 291 290 292 294 298 297 304 315 318 315 309
284 284 284 284 284 285 284 286 286 284 284 284 284 285 284 284 286 285 285 285 286 287 289 288 287 291 293 297 296 298 296 295
282 283 283 284 285 285 285 285 285 285 284 284 284 284 284 283 283 282 283 283 282 283 283 286 286 286 287 288 288 288 287 287

GFSFLT1_sfc_thetae_114.txt.gz
Theta_e
315 317 319 319 321 323 323 324 326 327 327 329 325 323 337 342 342 341 343 343 343 343 342 342 341 339 338 338 336 337 335 334
316 318 319 319 320 319 319 321 323 322 322 322 323 321 324 334 339 342 343 343 343 342 341 342 340 338 337 337 337 334 333 335
313 314 315 315 315 316 315 315 317 317 317 318 320 321 323 325 325 331 340 342 343 343 341 340 340 337 335 336 336 332 333 334
310 310 312 313 313 313 312 313 313 314 316 315 316 319 321 323 323 324 335 338 343 341 340 340 339 337 334 334 336 332 329 332
309 309 309 310 311 312 311 311 310 311 311 310 311 311 311 316 319 323 326 332 334 340 339 340 338 338 334 333 335 334 331 327
306 306 307 308 309 308 309 308 308 307 307 308 307 307 308 310 312 315 318 324 330 337 338 339 338 338 336 333 333 333 332 329
306 306 306 306 306 306 306 305 304 304 304 304 303 303 303 305 307 309 313 318 325 333 336 337 336 335 336 335 334 333 332 331
303 302 302 303 303 303 302 302 300 300 300 300 300 300 300 300 302 305 308 312 317 325 333 334 335 336 336 336 335 333 332 330
300 301 301 301 301 300 300 297 296 297 296 296 297 297 297 298 300 302 305 309 314 320 330 332 333 333 334 335 334 334 333 331
299 299 300 299 298 297 297 295 294 294 294 294 294 294 295 296 298 300 302 306 310 315 322 331 332 333 332 333 333 332 332 331
297 298 298 298 297 295 295 294 292 291 291 291 292 293 294 296 298 299 301 303 307 312 317 328 332 332 332 333 332 332 330 331
296 296 297 296 294 293 292 291 290 288 288 289 290 292 293 295 297 299 302 306 308 310 317 326 330 330 331 331 331 330 330 330
295 295 295 293 292 290 289 289 287 287 287 288 289 290 291 293 294 297 301 305 316 314 319 327 328 329 329 330 329 329 329 327
293 292 291 291 289 288 288 288 286 286 286 287 287 288 288 290 292 294 296 302 306 318 325 326 327 328 328 330 330 329 329 328
290 289 288 287 287 287 287 287 287 286 286 286 286 286 287 288 290 291 291 294 296 298 312 322 326 327 328 328 328 328 328 327
287 286 286 285 285 285 286 286 287 286 285 285 285 286 286 287 287 288 288 288 291 293 293 295 298 302 306 321 327 327 325 316
285 285 284 283 284 284 285 285 285 286 286 285 285 285 285 284 285 285 285 286 285 287 289 291 290 290 291 297 317 323 313 304
282 283 283 283 283 284 283 284 285 285 285 285 285 285 284 283 283 282 282 282 284 283 284 287 288 288 289 293 295 299 299 300
281 282 282 283 284 284 284 284 284 284 284 284 285 285 284 284 283 282 281 281 281 281 282 283 285 287 289 289 288 288 288 287

GFSFLT1_sfc_thetae_117.txt.gz
Theta_e
312 313 313 313 313 313 314 316 315 316 317 318 320 320 319 325 335 336 339 341 339 341 340 339 336 335 335 336 336 332 331 331
312 311 310 310 310 310 310 310 311 312 311 311 312 313 316 319 322 325 328 339 339 338 338 337 337 336 335 333 331 332 328 331
308 308 307 307 307 307 308 308 308 309 308 309 310 311 314 316 320 321 323 325 333 337 338 337 338 335 332 333 330 325 329 332
306 306 303 304 304 304 305 305 305 306 306 306 307 308 309 310 312 314 316 319 323 331 337 337 337 336 333 332 331 329 328 327
303 302 301 301 301 303 303 304 303 304 303 302 301 301 302 304 306 307 309 312 315 320 325 334 336 336 334 332 334 333 331 327
300 300 300 300 300 299 299 300 300 299 299 299 298 298 300 302 303 303 305 308 310 313 318 323 332 333 333 332 330 332 331 328
299 300 299 298 298 297 297 297 296 296 296 296 295 294 295 296 297 298 300 304 307 310 314 319 326 332 333 331 330 330 333 332
297 296 296 296 294 294 295 294 293 293 293 293 294 294 294 295 296 297 298 299 302 305 309 313 320 328 332 333 330 330 331 331
295 294 294 293 293 291 290 290 290 291 290 290 292 292 293 293 294 295 297 299 300 302 305 308 312 316 329 331 331 331 331 331
294 294 293 291 290 290 289 289 288 289 288 288 288 290 291 291 293 295 295 297 300 301 303 305 309 314 322 329 328 328 331 332
293 292 291 290 290 289 289 288 287 287 287 287 288 289 290 292 292 293 295 297 299 301 301 303 306 312 319 327 324 328 328 331
290 291 290 289 289 288 287 287 287 286 286 287 287 289 290 291 291 293 295 296 298 300 303 305 306 308 315 326 325 326 326 328
289 288 288 287 286 286 286 286 285 286 286 287 288 289 289 289 290 291 294 294 296 299 304 308 308 309 314 325 327 327 326 327
287 286 286 285 285 285 285 285 285 285 286 286 287 287 287 287 288 290 290 291 293 296 297 303 311 312 314 324 326 328 327 327
285 284 284 284 284 284 284 284 286 285 286 286 286 286 286 286 286 287 288 289 289 291 295 295 299 303 315 324 324 324 325 326
284 283 283 283 283 283 283 284 285 286 285 285 285 286 286 285 284 285 285 286 287 287 289 291 292 292 297 305 317 323 324 317
282 282 282 282 283 283 283 283 284 285 284 284 285 285 285 285 284 283 283 283 284 285 284 286 288 289 290 295 308 319 310 302
280 281 281 282 282 283 282 283 284 283 283 284 284 285 284 285 284 283 282 282 282 282 283 284 284 286 287 289 290 290 291 294
278 279 280 281 282 283 284 284 283 282 282 282 283 283 283 283 284 283 282 282 281 282 282 282 283 284 286 286 286 286 285 286

GFSFLT1_sfc_thetae_120.txt.gz
Theta_e
310 309 308 307 307 308 308 308 309 309 309 310 311 312 313 317 320 326 329 334 333 338 339 339 334 334 336 337 336 335 332 331
307 307 306 306 306 305 306 305 306 305 305 305 306 305 308 311 315 318 319 323 327 328 336 337 336 334 334 334 335 329 328 329
305 304 303 303 303 303 303 303 302 302 303 303 303 303 307 308 310 308 313 311 314 319 321 327 335 335 334 331 332 328 331 329
301 300 299 300 299 300 300 300 299 299 300 300 300 301 302 303 302 304 305 307 310 313 316 321 325 333 333 333 332 330 327 327
299 297 297 297 297 297 298 298 297 297 297 296 295 295 295 297 299 301 301 303 304 308 311 313 317 321 329 331 332 330 330 325
297 297 296 295 295 294 295 295 294 294 294 294 293 292 293 295 296 296 297 300 302 304 307 310 312 315 321 329 328 329 328 325
296 297 295 293 293 293 292 292 291 292 291 291 291 290 291 291 292 293 295 297 298 301 303 305 309 312 317 325 329 328 325 324
294 293 292 292 291 289 290 289 289 289 289 288 288 289 289 290 292 293 294 294 296 297 299 300 302 306 312 315 323 328 327 326
293 292 291 290 289 288 287 287 287 287 287 286 287 288 288 289 291 292 293 294 295 296 297 299 301 302 305 309 313 326 328 327
291 290 289 289 288 287 287 286 286 286 286 286 286 287 288 289 290 292 293 294 295 297 299 299 300 301 303 307 310 314 327 327
290 289 288 288 287 286 286 286 286 286 286 286 287 287 289 289 290 290 292 293 294 296 296 298 299 302 302 304 307 313 323 326
287 287 287 286 285 285 285 285 285 285 286 286 287 287 288 289 289 290 291 292 293 293 294 296 298 300 303 305 306 309 316 324
285 285 284 284 283 284 283 284 284 286 286 287 286 287 287 287 287 288 289 289 291 292 293 295 298 300 304 306 306 309 313 321
283 283 282 283 283 283 283 284 284 285 286 286 286 286 286 286 285 286 287 287 289 290 290 293 295 298 299 310 309 309 313 321
283 282 282 283 283 282 283 284 284 285 284 284 285 285 286 286 286 285 285 286 286 287 288 289 291 292 294 300 310 310 314 323
282 281 281 281 282 282 283 283 283 284 284 283 283 285 285 286 285 285 285 285 285 285 286 286 288 288 290 292 302 314 316 320
281 281 281 281 281 282 282 282 282 283 282 282 282 283 284 284 284 284 283 282 283 284 284 284 284 287 287 291 297 298 299 298
279 279 279 280 280 281 281 281 282 281 281 281 281 281 281 282 282 282 281 281 281 281 282 284 284 284 287 287 288 288 289 289
278 278 278 279 280 281 282 282 280 279 278 279 280 279 278 280 280 280 280 280 279 279 280 282 283 284 285 286 286 285 285 285

GFSFLT1_sfc_thetae_123.txt.gz
Theta_e
306 305 305 304 304 304 304 304 304 304 304 305 306 305 307 311 314 314 319 320 323 328 326 326 328 332 331 332 333 334 333 332
303 302 302 302 302 301 301 300 300 301 301 300 302 300 302 304 309 308 313 310 312 315 321 323 329 328 328 332 333 331 330 327
300 299 298 298 298 298 298 298 297 298 298 298 298 298 302 302 302 303 306 305 309 310 312 317 321 323 329 330 332 330 328 328
296 296 295 294 293 294 295 294 294 295 295 296 296 297 297 298 296 297 300 301 303 305 308 310 312 317 319 323 329 327 326 327
294 294 293 294 293 293 292 293 293 293 293 292 291 291 290 293 294 295 296 298 300 303 305 306 308 310 313 317 325 328 325 321
293 292 292 292 292 291 290 291 290 291 290 290 289 288 290 291 292 292 294 296 297 299 301 302 303 306 309 313 316 322 329 325
293 293 294 292 291 290 290 289 289 288 288 287 287 286 286 287 289 290 292 294 295 296 298 298 299 301 303 307 312 315 325 328
291 290 290 290 289 288 288 288 287 287 286 286 286 286 286 287 288 289 290 292 294 295 295 296 297 299 300 301 303 306 310 324
291 290 289 288 288 287 286 286 286 287 287 287 287 288 288 289 289 289 290 291 293 295 295 297 298 300 301 301 301 303 308 312
290 289 288 287 287 287 286 285 286 286 287 287 287 287 287 288 289 290 290 292 293 294 295 296 297 298 300 301 300 301 305 309
288 287 286 286 285 286 286 286 286 286 287 287 286 287 287 288 289 288 289 290 291 292 293 293 294 296 298 300 301 302 303 306
285 285 285 285 284 283 284 285 285 285 286 287 286 287 287 287 286 287 287 288 289 290 291 292 292 293 296 298 300 301 302 305
282 283 283 283 282 283 284 284 284 285 285 285 286 286 287 286 286 286 287 287 288 288 289 290 291 293 295 297 298 302 305 306
281 282 282 282 282 283 283 284 284 284 284 284 284 285 285 285 285 285 285 285 286 287 288 288 288 290 291 293 295 298 301 306
282 282 282 282 283 283 283 283 283 283 283 282 282 282 284 283 284 284 284 284 283 284 286 287 287 288 289 290 292 295 299 309
281 281 281 281 281 282 282 282 282 282 281 280 280 281 281 282 282 282 282 282 282 283 283 285 286 286 287 288 292 295 297 309
281 280 280 280 281 280 280 279 280 279 279 279 279 280 280 280 280 280 280 281 281 281 281 283 284 285 287 288 289 292 293 294
279 279 280 280 280 281 277 276 277 277 276 277 277 278 278 278 279 278 278 278 279 279 280 282 283 284 286 287 286 285 286 286
278 279 279 277 275 276 278 277 277 276 275 275 276 276 276 276 276 276 277 277 277 278 279 280 281 283 285 286 285 284 284 284